[{"header": {"parameterCategory": 1, "parameterNumber": 2, "dx": 0.06612293990616946, "dy": 0.0552356325346848, "nx": 98, "ny": 59, "la1": 35.046912555036876, "la2": 31.78801023549047, "lo1": -121.43107172385933, "lo2": -114.95102361305473, "refTime": "2026041221"}, "data": [25.03, 25.03, 25.03, 25.48, 25.48, 25.48, 25.03, 25.03, 25.03, 25.03, 25.03, 25.03, 25.03, 25.03, 25.03, 25.03, 25.03, 25.03, 25.03, 25.48, 25.48, 25.48, 25.03, 25.03, 25.03, 25.03, 25.03, 24.59, 24.59, 24.59, 24.14, 24.14, 24.14, 23.69, 23.69, 23.69, 23.69, 24.14, 24.14, 24.14, 24.14, 24.59, 24.14, 24.14, 24.14, 24.14, 24.59, 25.03, 25.03, 25.48, 25.48, 25.48, 25.48, 25.48, 25.48, 25.48, 25.03, 25.03, 25.03, 25.03, 25.03, 25.03, 25.03, 25.03, 25.03, 25.03, 24.59, 24.59, 24.14, 23.69, 23.69, 23.69, 23.69, 24.14, 24.14, 24.14, 24.14, 24.59, 24.59, 25.03, 25.48, 25.93, 25.48, 25.48, 25.48, 25.03, 25.03, 25.03, 25.03, 24.59, 24.59, 24.59, 24.59, 24.14, 24.14, 23.69, 23.69, 23.69, 25.93, 25.93, 25.93, 25.93, 25.93, 25.93, 25.93, 25.93, 25.93, 25.93, 25.93, 25.93, 25.48, 25.48, 25.93, 25.93, 25.93, 25.48, 25.48, 25.93, 25.93, 25.93, 25.93, 25.93, 25.48, 25.48, 25.48, 25.48, 25.48, 25.48, 25.03, 25.03, 24.59, 24.14, 24.14, 24.14, 24.14, 24.59, 25.03, 25.03, 25.03, 24.59, 24.59, 25.03, 25.03, 25.03, 25.48, 25.93, 25.93, 25.93, 25.93, 25.93, 25.48, 25.93, 25.93, 25.93, 25.48, 25.48, 25.48, 25.48, 25.48, 25.48, 25.48, 25.48, 25.48, 25.48, 25.03, 24.59, 24.59, 24.14, 23.69, 24.14, 24.14, 24.59, 24.59, 24.59, 24.59, 24.59, 24.59, 25.03, 25.48, 25.93, 25.48, 25.48, 25.48, 25.03, 25.03, 25.03, 25.03, 24.59, 24.59, 24.59, 24.59, 24.14, 24.14, 23.69, 23.69, 23.69, 26.37, 26.37, 26.37, 26.37, 26.37, 26.37, 26.37, 26.37, 26.37, 26.37, 26.37, 26.37, 25.93, 26.37, 26.37, 26.37, 26.37, 26.37, 26.37, 26.37, 26.37, 26.37, 26.37, 26.37, 26.37, 26.37, 25.93, 25.93, 25.93, 25.93, 25.93, 25.93, 25.48, 25.03, 24.14, 24.14, 24.14, 24.59, 25.03, 25.48, 25.03, 25.03, 25.03, 25.48, 25.93, 25.93, 25.93, 25.93, 26.37, 26.37, 26.37, 25.93, 25.93, 25.93, 26.37, 26.37, 25.93, 25.93, 25.93, 25.93, 25.93, 26.37, 26.37, 26.37, 25.93, 25.93, 25.48, 25.03, 24.59, 24.14, 24.14, 24.14, 24.59, 24.59, 25.03, 25.48, 25.48, 25.03, 25.03, 25.48, 25.93, 25.93, 25.93, 25.48, 25.48, 25.48, 25.48, 25.03, 24.59, 24.14, 24.59, 24.59, 24.59, 24.14, 24.14, 23.69, 23.69, 23.69, 27.27, 27.27, 27.27, 27.27, 27.27, 27.27, 27.27, 27.27, 26.82, 26.82, 26.82, 26.82, 26.82, 26.82, 26.82, 26.82, 26.82, 26.82, 26.82, 26.82, 26.82, 26.82, 27.27, 27.27, 26.82, 26.82, 26.82, 26.37, 26.37, 26.37, 26.37, 26.37, 26.37, 25.93, 25.48, 25.03, 24.59, 24.14, 24.59, 25.03, 25.03, 25.48, 25.48, 25.93, 25.93, 25.93, 26.37, 26.37, 26.37, 26.37, 26.37, 26.37, 26.37, 26.37, 26.82, 26.82, 26.37, 26.37, 26.37, 26.37, 26.37, 26.82, 26.82, 26.82, 26.37, 25.93, 25.48, 25.03, 25.03, 24.59, 24.14, 24.14, 24.14, 24.59, 25.03, 25.48, 25.48, 25.48, 25.48, 25.93, 26.37, 25.93, 25.93, 25.48, 25.48, 25.48, 25.03, 24.59, 24.14, 24.14, 24.59, 24.59, 24.59, 24.14, 23.69, 23.69, 23.69, 23.69, 27.72, 27.72, 27.72, 27.72, 27.72, 27.72, 27.72, 27.72, 27.72, 27.72, 27.27, 27.27, 27.27, 27.27, 27.27, 27.27, 27.27, 27.27, 27.27, 27.27, 27.27, 27.27, 27.72, 27.72, 27.72, 27.27, 27.27, 26.82, 26.82, 26.82, 26.82, 26.82, 26.82, 26.82, 26.37, 26.37, 25.93, 25.03, 25.48, 25.93, 25.93, 25.93, 25.93, 25.93, 25.93, 25.93, 26.37, 26.37, 26.82, 26.82, 26.82, 26.82, 26.82, 26.82, 26.82, 26.82, 26.82, 26.82, 26.82, 26.82, 26.82, 27.27, 27.27, 26.82, 26.37, 25.93, 25.93, 25.48, 25.48, 25.03, 24.14, 24.14, 24.14, 24.59, 25.03, 25.48, 25.48, 25.48, 25.93, 26.37, 26.37, 25.93, 25.93, 25.93, 25.93, 25.48, 24.59, 24.14, 24.14, 24.59, 25.03, 24.59, 24.14, 24.14, 23.69, 23.25, 23.25, 23.25, 28.16, 28.16, 28.16, 28.16, 28.16, 28.16, 28.16, 28.16, 28.16, 28.16, 27.72, 27.72, 27.72, 27.72, 27.72, 27.72, 27.72, 27.27, 27.72, 27.72, 27.72, 27.72, 27.72, 28.16, 28.16, 28.16, 28.16, 27.72, 27.72, 27.27, 27.27, 27.27, 27.27, 27.27, 27.27, 27.27, 26.82, 25.93, 26.37, 26.82, 26.82, 26.37, 26.37, 26.37, 26.37, 25.93, 26.37, 26.37, 26.37, 26.82, 26.82, 26.82, 27.27, 27.27, 27.27, 26.82, 26.82, 26.82, 26.82, 26.82, 27.27, 27.27, 27.27, 27.27, 26.82, 25.93, 25.93, 25.48, 25.48, 25.03, 24.59, 24.14, 24.14, 24.14, 24.59, 25.03, 25.48, 25.48, 25.48, 26.37, 26.37, 25.93, 25.93, 25.93, 25.48, 25.03, 24.14, 24.14, 24.59, 25.03, 25.03, 24.59, 24.14, 24.14, 23.25, 23.25, 23.25, 23.25, 29.06, 29.06, 29.06, 29.06, 29.06, 28.61, 28.61, 28.61, 28.61, 28.61, 28.16, 28.16, 28.16, 28.16, 28.16, 28.16, 27.72, 27.72, 27.72, 28.16, 28.16, 28.16, 28.16, 28.16, 28.16, 28.61, 28.61, 28.61, 28.61, 28.16, 27.72, 27.72, 27.72, 27.72, 27.72, 27.72, 27.27, 26.82, 26.82, 27.27, 27.27, 27.27, 27.27, 27.27, 27.27, 26.82, 26.82, 26.37, 26.37, 26.82, 26.82, 27.27, 27.27, 27.27, 27.27, 26.82, 26.82, 26.82, 26.82, 27.27, 27.27, 27.72, 27.27, 27.27, 26.82, 26.37, 25.48, 25.48, 25.48, 25.03, 25.03, 24.59, 24.59, 24.59, 25.03, 25.48, 25.93, 25.93, 25.93, 25.93, 26.37, 25.93, 25.93, 25.48, 25.03, 24.59, 24.59, 24.59, 25.03, 25.03, 25.03, 24.59, 24.14, 23.69, 23.25, 23.25, 23.25, 23.25, 29.5, 29.5, 29.5, 29.5, 29.5, 29.06, 29.06, 29.06, 29.06, 29.06, 28.61, 28.61, 28.61, 28.16, 28.61, 28.61, 28.16, 28.16, 28.16, 28.16, 28.16, 28.16, 28.61, 28.61, 28.61, 28.61, 28.61, 29.06, 28.61, 28.61, 28.16, 28.61, 28.61, 28.61, 28.16, 28.16, 28.16, 27.72, 27.27, 27.72, 28.16, 28.16, 28.16, 28.16, 28.16, 28.16, 27.72, 27.27, 26.82, 26.82, 26.82, 27.27, 27.27, 27.27, 27.27, 27.27, 26.82, 27.27, 27.27, 27.27, 27.72, 27.72, 27.27, 27.27, 27.27, 26.37, 25.93, 25.48, 25.48, 25.48, 25.03, 25.03, 24.59, 25.03, 25.48, 25.93, 26.37, 26.37, 26.37, 26.37, 26.82, 26.37, 25.93, 25.03, 24.59, 24.59, 24.59, 25.03, 25.03, 25.03, 25.03, 24.59, 24.14, 23.69, 23.25, 23.25, 23.69, 23.25, 29.95, 29.95, 29.95, 29.5, 29.5, 29.5, 29.5, 29.5, 29.5, 29.06, 29.06, 29.06, 28.61, 28.61, 28.61, 28.61, 28.61, 28.61, 28.16, 28.16, 28.16, 28.16, 28.61, 28.61, 28.61, 28.61, 29.06, 29.06, 29.06, 28.61, 28.61, 29.06, 29.06, 29.06, 28.61, 28.61, 28.61, 28.16, 28.16, 28.16, 28.16, 28.16, 28.61, 28.61, 29.06, 29.06, 28.61, 28.16, 27.72, 27.72, 27.72, 27.72, 27.72, 27.72, 27.27, 27.27, 27.27, 27.27, 27.72, 27.72, 27.72, 27.72, 27.72, 27.72, 27.72, 27.27, 26.37, 25.93, 25.48, 25.48, 25.48, 25.03, 25.48, 25.93, 26.37, 26.82, 26.82, 26.82, 26.82, 27.27, 26.82, 26.37, 25.93, 25.03, 24.59, 24.59, 25.03, 25.03, 25.48, 25.03, 25.03, 24.59, 24.14, 23.69, 23.25, 23.69, 23.69, 23.69, 29.95, 29.95, 29.95, 29.95, 29.95, 29.95, 29.95, 29.5, 29.5, 29.5, 29.5, 29.06, 29.06, 29.06, 29.06, 29.06, 29.06, 28.61, 28.61, 28.61, 28.61, 28.61, 28.61, 29.06, 29.06, 28.61, 29.06, 29.06, 29.06, 28.61, 28.61, 29.06, 29.06, 29.06, 29.06, 28.61, 28.61, 28.61, 28.61, 28.16, 28.61, 28.61, 28.61, 29.06, 29.06, 29.06, 29.5, 29.06, 28.61, 28.16, 28.16, 28.16, 28.16, 28.16, 27.72, 27.27, 26.82, 27.27, 27.72, 28.16, 28.16, 27.72, 28.16, 28.61, 28.16, 27.72, 26.82, 25.93, 25.48, 25.48, 25.48, 25.48, 25.93, 26.37, 26.82, 27.27, 27.72, 27.27, 27.27, 26.82, 26.37, 25.93, 25.48, 25.03, 25.03, 25.03, 25.03, 25.03, 25.48, 25.03, 25.03, 24.59, 24.59, 24.14, 23.69, 23.69, 23.69, 23.69, 30.4, 30.4, 30.4, 30.4, 30.4, 29.95, 29.95, 29.95, 29.95, 29.5, 29.5, 29.5, 29.06, 29.06, 29.06, 29.06, 29.06, 29.06, 28.61, 28.61, 28.61, 28.61, 28.61, 29.06, 29.06, 29.06, 29.06, 29.06, 29.06, 29.06, 28.61, 29.06, 29.5, 29.06, 29.06, 28.61, 28.61, 29.06, 28.61, 28.61, 28.61, 28.61, 29.06, 29.06, 29.5, 29.5, 29.5, 29.5, 29.06, 28.61, 28.61, 28.16, 28.16, 28.16, 27.72, 26.82, 26.37, 26.37, 27.27, 27.72, 27.72, 27.72, 27.72, 28.16, 28.16, 27.72, 26.82, 25.93, 25.48, 25.03, 25.03, 25.03, 25.93, 26.82, 27.72, 28.16, 28.16, 27.72, 26.82, 26.37, 25.93, 25.48, 25.48, 25.03, 25.03, 25.03, 25.48, 25.48, 25.48, 25.48, 25.03, 24.59, 24.59, 24.14, 23.69, 23.69, 23.69, 23.25, 30.4, 30.4, 30.4, 30.4, 30.4, 30.4, 29.95, 29.95, 29.95, 29.95, 29.5, 29.5, 29.5, 29.5, 29.06, 29.06, 29.06, 29.06, 29.06, 29.06, 29.06, 29.06, 29.06, 29.06, 29.06, 29.06, 29.06, 29.06, 29.5, 29.06, 28.61, 29.06, 29.5, 29.06, 29.06, 29.06, 29.06, 29.06, 29.06, 28.61, 29.06, 29.06, 29.06, 29.5, 29.5, 29.5, 29.5, 29.5, 29.5, 29.06, 29.06, 29.06, 29.06, 28.61, 28.61, 27.72, 26.82, 25.48, 25.48, 25.93, 26.37, 26.37, 27.27, 27.72, 27.72, 27.72, 26.82, 25.93, 25.03, 24.14, 24.14, 24.59, 25.48, 26.82, 28.16, 28.61, 28.16, 27.27, 25.93, 25.48, 25.48, 25.48, 25.48, 25.48, 25.48, 25.48, 25.48, 25.48, 25.48, 25.03, 25.03, 24.59, 24.59, 24.14, 23.69, 23.69, 23.25, 23.25, 30.84, 30.84, 30.4, 30.4, 30.4, 30.4, 30.4, 29.95, 29.95, 29.95, 29.95, 29.5, 29.5, 29.5, 29.5, 29.06, 29.06, 29.06, 29.06, 29.06, 29.06, 29.06, 29.06, 29.06, 29.06, 29.06, 29.06, 29.06, 29.5, 29.5, 29.06, 29.06, 29.06, 29.06, 29.5, 29.5, 29.06, 29.06, 29.06, 29.06, 29.06, 29.06, 29.06, 29.5, 29.5, 29.5, 29.5, 29.5, 29.5, 29.06, 29.06, 29.06, 29.06, 29.5, 29.5, 29.06, 28.61, 26.82, 25.93, 26.37, 26.37, 26.37, 26.82, 27.27, 27.27, 27.27, 26.82, 25.93, 24.59, 23.25, 22.8, 22.8, 24.59, 26.37, 27.72, 28.16, 27.72, 26.37, 25.48, 25.48, 25.48, 25.48, 25.93, 25.93, 25.48, 25.03, 25.48, 25.48, 25.03, 24.59, 24.59, 24.59, 24.14, 24.14, 23.69, 23.25, 23.25, 22.8, 30.84, 30.84, 30.84, 30.4, 30.4, 30.4, 30.4, 30.4, 29.95, 29.95, 29.95, 29.5, 29.5, 29.5, 29.5, 29.5, 29.06, 29.06, 29.06, 29.06, 29.06, 29.06, 29.06, 29.5, 29.5, 29.5, 29.5, 29.5, 29.5, 29.5, 29.06, 29.06, 29.06, 29.06, 29.5, 29.5, 29.06, 29.06, 29.06, 29.06, 29.06, 29.06, 29.06, 29.06, 29.5, 29.5, 29.5, 29.5, 29.5, 29.5, 29.06, 29.06, 29.06, 29.5, 29.5, 29.5, 29.06, 28.16, 26.82, 27.27, 28.16, 28.16, 28.16, 28.16, 28.16, 27.72, 27.27, 26.82, 25.48, 23.69, 22.35, 21.9, 22.35, 24.14, 25.93, 26.82, 26.82, 25.48, 25.03, 25.48, 25.48, 25.93, 25.93, 25.93, 25.93, 25.03, 25.03, 25.03, 24.59, 24.14, 24.14, 24.14, 24.14, 23.69, 23.69, 23.25, 23.25, 22.8, 30.84, 30.84, 30.84, 30.84, 30.4, 30.4, 30.4, 30.4, 29.95, 29.95, 29.95, 29.95, 29.5, 29.5, 29.5, 29.5, 29.5, 29.06, 29.06, 29.06, 29.06, 29.5, 29.5, 29.5, 29.5, 29.5, 29.5, 29.5, 29.5, 29.5, 29.5, 29.5, 29.5, 29.5, 29.5, 29.5, 29.06, 29.06, 29.06, 29.06, 29.06, 29.06, 29.06, 29.06, 29.5, 29.5, 29.5, 29.5, 29.5, 29.06, 29.06, 28.61, 29.06, 29.06, 29.06, 29.06, 29.5, 28.61, 28.16, 27.72, 28.61, 29.06, 29.06, 29.06, 29.06, 28.61, 28.16, 27.72, 26.37, 25.03, 22.8, 21.46, 20.56, 21.9, 23.69, 25.03, 25.48, 25.48, 25.48, 25.48, 25.48, 25.93, 25.93, 25.93, 25.93, 25.48, 25.03, 24.59, 24.59, 24.14, 24.14, 24.14, 24.14, 23.69, 23.25, 22.8, 22.8, 22.8, 30.84, 30.84, 30.84, 30.84, 30.4, 30.4, 30.4, 30.4, 29.95, 29.95, 29.95, 29.95, 29.95, 29.5, 29.5, 29.5, 29.5, 29.5, 29.06, 29.06, 29.06, 29.5, 29.5, 29.5, 29.5, 29.5, 29.5, 29.5, 29.5, 29.5, 29.5, 29.5, 29.5, 29.5, 29.5, 29.06, 29.06, 29.06, 29.06, 29.06, 29.06, 29.06, 29.06, 29.06, 29.06, 29.5, 29.5, 29.06, 29.06, 29.06, 28.61, 28.61, 28.61, 28.61, 29.06, 29.06, 29.06, 29.06, 28.61, 28.16, 28.16, 28.61, 28.61, 28.61, 29.06, 28.61, 28.61, 28.16, 27.27, 25.93, 24.14, 21.46, 20.12, 21.46, 23.69, 24.59, 25.03, 25.03, 25.48, 25.48, 25.48, 25.48, 25.48, 25.48, 25.48, 25.03, 25.03, 24.59, 24.59, 24.14, 23.69, 23.69, 23.25, 22.8, 23.25, 23.25, 22.8, 22.8, 30.84, 30.84, 30.84, 30.4, 30.4, 30.4, 30.4, 30.4, 29.95, 29.95, 29.95, 29.95, 29.95, 29.95, 29.5, 29.5, 29.5, 29.5, 29.5, 29.06, 29.5, 29.5, 29.5, 29.5, 29.5, 29.5, 29.5, 29.5, 29.5, 29.5, 29.5, 29.5, 29.5, 29.5, 29.06, 29.06, 29.06, 29.06, 29.06, 29.06, 29.06, 29.06, 29.06, 29.06, 29.06, 29.06, 29.06, 29.06, 29.06, 28.61, 28.61, 28.61, 28.61, 28.61, 28.61, 28.61, 28.61, 28.61, 28.16, 28.16, 27.72, 28.16, 28.16, 28.61, 28.61, 28.61, 28.61, 28.61, 28.16, 27.27, 25.03, 22.35, 21.01, 22.35, 24.14, 25.48, 25.48, 25.48, 25.48, 25.48, 25.48, 25.03, 25.03, 25.03, 24.59, 24.59, 25.03, 24.14, 23.69, 23.25, 23.25, 23.25, 23.25, 22.8, 23.25, 23.25, 23.25, 23.25, 30.84, 30.4, 30.4, 30.4, 30.4, 30.4, 30.4, 30.4, 29.95, 29.95, 29.95, 29.95, 29.95, 29.5, 29.5, 29.5, 29.5, 29.5, 29.5, 29.06, 29.06, 29.5, 29.5, 29.5, 29.5, 29.5, 29.5, 29.5, 29.5, 29.5, 29.06, 29.06, 29.06, 29.06, 29.06, 29.06, 29.06, 28.61, 28.61, 28.61, 29.06, 29.06, 29.06, 29.06, 29.06, 29.06, 29.06, 29.06, 28.61, 28.61, 28.61, 28.61, 28.61, 28.61, 28.16, 28.16, 28.16, 28.16, 28.16, 28.16, 27.72, 27.72, 28.16, 28.16, 28.16, 28.16, 28.61, 28.61, 28.61, 27.72, 25.93, 23.25, 21.9, 22.8, 24.59, 25.93, 26.37, 26.37, 26.37, 25.93, 25.48, 24.59, 24.14, 23.69, 23.69, 23.69, 23.69, 23.69, 23.69, 23.25, 22.8, 22.8, 23.25, 23.25, 23.25, 23.25, 23.25, 23.25, 30.4, 30.4, 30.4, 30.4, 30.4, 30.4, 30.4, 29.95, 29.95, 29.95, 29.95, 29.95, 29.5, 29.5, 29.5, 29.5, 29.5, 29.5, 29.5, 29.06, 29.06, 29.5, 29.5, 29.5, 29.5, 29.5, 29.5, 29.5, 29.06, 29.06, 29.06, 29.06, 29.06, 29.06, 29.06, 29.06, 29.06, 28.61, 28.61, 28.61, 28.61, 28.61, 28.61, 29.06, 29.06, 29.06, 29.06, 28.61, 28.61, 28.61, 28.61, 28.61, 28.61, 28.16, 28.16, 28.16, 28.16, 28.16, 28.16, 27.72, 27.72, 27.72, 27.72, 27.72, 27.72, 28.16, 28.16, 28.16, 28.61, 28.16, 26.37, 24.14, 22.35, 22.8, 24.59, 25.93, 26.82, 26.82, 26.82, 25.93, 24.59, 24.14, 23.69, 23.25, 23.25, 23.25, 23.69, 23.25, 23.25, 23.25, 22.8, 22.8, 23.25, 23.69, 23.69, 23.25, 23.25, 23.25, 30.4, 30.4, 30.4, 30.4, 30.4, 30.4, 29.95, 29.95, 29.95, 29.95, 29.95, 29.5, 29.5, 29.5, 29.5, 29.5, 29.5, 29.5, 29.5, 29.06, 29.06, 29.5, 29.5, 29.5, 29.5, 29.5, 29.5, 29.06, 29.06, 29.06, 29.06, 29.06, 29.06, 29.06, 29.06, 29.06, 28.61, 28.61, 28.61, 28.16, 28.61, 28.61, 28.61, 28.61, 29.06, 29.06, 29.06, 28.61, 28.61, 28.61, 28.61, 28.16, 28.16, 28.16, 28.16, 27.72, 27.72, 28.16, 27.72, 27.72, 27.72, 27.72, 27.72, 27.72, 27.72, 27.72, 28.16, 28.16, 28.16, 28.16, 26.37, 24.14, 22.35, 22.8, 24.59, 26.37, 26.82, 26.82, 25.93, 25.03, 24.59, 24.14, 24.14, 24.14, 24.14, 24.14, 24.14, 23.69, 23.25, 23.25, 23.25, 22.8, 23.25, 24.14, 23.69, 23.25, 23.25, 23.25, 30.4, 30.4, 30.4, 30.4, 30.4, 29.95, 29.95, 29.95, 29.95, 29.95, 29.5, 29.5, 29.5, 29.5, 29.5, 29.5, 29.5, 29.5, 29.06, 29.06, 29.06, 29.5, 29.5, 29.5, 29.5, 29.06, 29.06, 29.06, 29.06, 29.06, 29.06, 29.06, 29.06, 29.06, 28.61, 28.61, 28.61, 28.61, 28.16, 28.16, 28.16, 28.61, 28.61, 28.61, 28.61, 29.06, 28.61, 28.61, 28.61, 28.16, 28.16, 28.16, 28.16, 27.72, 27.72, 27.72, 27.72, 27.72, 27.72, 27.72, 27.72, 27.72, 27.72, 27.72, 27.72, 27.72, 27.72, 28.16, 28.16, 28.16, 26.82, 24.59, 22.35, 22.8, 25.03, 26.37, 26.37, 26.37, 25.48, 25.03, 25.03, 25.03, 25.03, 25.03, 25.03, 25.03, 24.59, 24.14, 23.25, 23.25, 23.25, 23.25, 23.69, 23.69, 23.69, 23.69, 23.25, 23.25, 30.4, 30.4, 29.95, 29.95, 29.95, 29.95, 29.95, 29.95, 29.95, 29.5, 29.5, 29.5, 29.5, 29.5, 29.06, 29.06, 29.06, 29.06, 29.06, 29.06, 29.06, 29.06, 29.5, 29.5, 29.5, 29.06, 29.06, 29.06, 28.61, 28.61, 28.61, 28.61, 28.61, 28.61, 28.61, 28.61, 28.61, 28.16, 28.16, 28.16, 28.16, 28.16, 28.16, 28.61, 28.61, 28.61, 28.61, 28.16, 28.16, 28.16, 28.16, 27.72, 27.72, 27.72, 27.72, 27.72, 27.72, 27.27, 27.72, 27.72, 27.72, 27.27, 27.27, 27.72, 27.72, 27.72, 27.72, 27.72, 28.16, 27.72, 27.27, 25.03, 21.9, 21.46, 25.03, 25.48, 25.93, 25.93, 25.93, 25.93, 25.48, 25.93, 25.93, 25.93, 25.93, 25.48, 25.03, 24.59, 23.69, 23.25, 23.69, 24.14, 23.69, 23.69, 23.69, 23.69, 23.69, 23.69, 29.95, 29.95, 29.95, 29.95, 29.95, 29.95, 29.95, 29.5, 29.5, 29.5, 29.5, 29.5, 29.06, 29.06, 29.06, 29.06, 29.06, 29.06, 29.06, 29.06, 29.06, 29.06, 29.5, 29.5, 29.06, 29.06, 28.61, 28.61, 28.61, 28.61, 28.61, 28.61, 28.61, 28.61, 28.61, 28.16, 28.16, 28.16, 28.16, 28.16, 28.16, 28.16, 28.16, 28.61, 28.61, 28.61, 28.16, 28.16, 28.16, 27.72, 27.72, 27.72, 27.72, 27.72, 27.72, 27.72, 27.72, 27.27, 27.27, 27.27, 27.27, 27.27, 27.72, 27.72, 27.72, 27.72, 27.27, 27.72, 27.72, 27.72, 27.27, 25.48, 19.67, 22.8, 24.14, 24.59, 25.48, 26.37, 26.37, 26.37, 26.37, 26.37, 26.37, 26.37, 26.37, 25.48, 25.03, 25.03, 24.59, 24.59, 24.14, 24.14, 24.14, 24.14, 24.14, 23.69, 24.14, 24.14, 29.95, 29.95, 29.95, 29.95, 29.95, 29.95, 29.5, 29.5, 29.5, 29.5, 29.5, 29.06, 29.06, 29.06, 29.06, 29.06, 29.06, 29.06, 29.06, 29.06, 29.06, 29.06, 29.06, 29.06, 29.06, 28.61, 28.61, 28.61, 28.61, 28.16, 28.16, 28.16, 28.16, 28.16, 28.16, 28.16, 28.16, 28.16, 28.16, 28.16, 28.16, 28.16, 28.16, 28.16, 28.61, 28.61, 28.16, 28.16, 27.72, 27.72, 27.72, 27.72, 27.27, 27.27, 27.27, 27.27, 27.72, 27.72, 27.27, 26.82, 27.27, 27.72, 27.72, 27.72, 27.72, 27.72, 27.27, 27.27, 27.27, 27.27, 27.27, 23.25, 20.12, 21.01, 22.8, 23.69, 25.03, 25.93, 26.82, 27.27, 27.27, 26.82, 26.82, 26.82, 26.37, 25.93, 25.48, 25.93, 25.93, 25.03, 24.59, 24.14, 24.14, 24.14, 24.14, 24.14, 24.59, 24.59, 29.95, 29.95, 29.95, 29.95, 29.95, 29.95, 29.5, 29.5, 29.5, 29.5, 29.06, 29.06, 29.06, 29.06, 29.06, 29.06, 29.06, 29.06, 29.06, 29.06, 29.06, 29.06, 29.06, 29.06, 29.06, 28.61, 28.61, 28.16, 28.16, 28.16, 28.16, 28.16, 28.16, 28.16, 28.16, 28.16, 27.72, 27.72, 27.72, 27.72, 28.16, 28.16, 28.16, 28.16, 28.16, 28.16, 28.16, 27.72, 27.72, 27.72, 27.27, 27.27, 27.27, 27.27, 27.27, 27.27, 27.27, 27.72, 27.27, 26.82, 26.82, 27.72, 27.72, 27.72, 27.72, 27.27, 27.27, 27.27, 26.82, 26.82, 26.37, 24.59, 21.9, 21.01, 21.46, 22.8, 24.14, 25.03, 26.37, 27.27, 27.72, 27.27, 27.27, 26.82, 26.82, 26.37, 26.37, 26.37, 26.37, 25.93, 24.59, 24.14, 24.14, 24.14, 24.59, 24.59, 24.59, 24.59, 29.95, 29.95, 29.95, 29.95, 29.95, 29.95, 29.5, 29.5, 29.5, 29.5, 29.06, 29.06, 29.06, 29.06, 29.06, 29.06, 28.61, 28.61, 28.61, 29.06, 29.06, 29.06, 29.06, 29.06, 28.61, 28.16, 28.16, 28.16, 28.16, 28.16, 28.16, 28.16, 28.16, 28.16, 28.16, 27.72, 27.72, 27.72, 27.72, 27.72, 27.72, 27.72, 28.16, 28.16, 28.16, 27.72, 27.72, 27.72, 27.27, 27.27, 27.27, 27.27, 27.27, 27.27, 26.82, 26.82, 27.27, 27.72, 27.72, 27.27, 26.82, 27.27, 27.72, 27.72, 27.27, 27.27, 27.27, 26.82, 26.37, 26.37, 26.37, 25.48, 23.69, 21.9, 21.46, 21.9, 22.8, 24.14, 25.48, 26.37, 27.27, 27.72, 27.27, 27.27, 26.82, 26.82, 26.82, 26.82, 26.82, 26.37, 25.48, 24.14, 24.14, 24.14, 24.59, 25.03, 25.03, 25.03, 29.95, 29.95, 29.95, 29.95, 29.95, 29.95, 29.5, 29.5, 29.5, 29.5, 29.06, 29.06, 29.06, 29.06, 28.61, 28.61, 28.61, 28.61, 28.61, 29.06, 29.06, 29.06, 29.06, 28.61, 28.16, 28.16, 28.16, 28.16, 27.72, 27.72, 27.72, 27.72, 27.72, 27.72, 27.72, 27.72, 27.72, 27.72, 27.72, 27.72, 27.72, 27.72, 27.72, 27.72, 27.72, 27.72, 27.72, 27.27, 27.27, 27.27, 27.27, 27.27, 26.82, 26.82, 26.82, 26.82, 27.27, 27.27, 27.72, 27.72, 27.27, 27.27, 27.27, 27.72, 27.72, 27.27, 27.27, 26.82, 26.37, 26.37, 25.93, 25.48, 25.03, 23.69, 22.8, 21.9, 21.46, 23.25, 25.03, 25.93, 26.82, 27.27, 27.72, 27.27, 27.27, 27.27, 27.27, 27.27, 26.82, 26.82, 26.37, 25.48, 24.59, 24.59, 25.03, 25.03, 25.03, 25.03, 30.4, 30.4, 29.95, 29.95, 29.95, 29.95, 29.5, 29.5, 29.5, 29.5, 29.06, 29.06, 29.06, 29.06, 28.61, 28.61, 28.61, 28.61, 28.61, 29.06, 29.06, 29.06, 28.61, 28.61, 28.16, 28.16, 27.72, 27.72, 27.72, 27.72, 27.72, 27.72, 27.72, 27.72, 27.72, 27.72, 27.72, 27.72, 27.27, 27.27, 27.27, 27.27, 27.27, 27.27, 27.27, 27.27, 27.27, 27.27, 27.27, 26.82, 26.82, 26.82, 26.82, 26.82, 26.82, 26.82, 26.82, 27.27, 27.27, 27.27, 27.27, 27.27, 27.27, 27.72, 27.72, 27.27, 26.82, 26.82, 26.82, 26.37, 26.37, 25.93, 25.03, 24.59, 24.14, 22.8, 22.35, 23.25, 24.59, 25.93, 26.37, 26.82, 27.27, 27.27, 27.72, 27.72, 27.72, 27.27, 26.82, 26.82, 26.82, 26.37, 25.48, 25.48, 25.93, 25.93, 25.48, 25.48, 30.4, 30.4, 30.4, 29.95, 29.95, 29.95, 29.95, 29.5, 29.5, 29.5, 29.06, 29.06, 29.06, 29.06, 28.61, 28.61, 28.61, 28.61, 28.61, 29.06, 29.06, 28.61, 28.61, 28.16, 28.16, 27.72, 27.72, 27.72, 27.72, 27.72, 27.72, 27.72, 27.72, 27.72, 27.72, 27.27, 27.27, 27.27, 27.27, 27.27, 27.27, 27.27, 27.27, 27.27, 27.27, 27.27, 27.27, 27.27, 26.82, 26.82, 26.82, 26.82, 26.82, 26.82, 26.82, 26.82, 26.82, 26.82, 27.27, 27.27, 27.27, 27.27, 27.27, 27.72, 27.72, 27.27, 26.82, 26.82, 26.82, 26.82, 26.82, 25.93, 25.48, 24.59, 24.14, 24.14, 24.14, 24.59, 25.03, 25.93, 26.82, 26.82, 26.82, 27.27, 27.72, 28.16, 28.16, 27.72, 27.27, 27.27, 27.27, 27.27, 27.27, 26.37, 26.37, 26.37, 25.93, 25.93, 30.4, 30.4, 30.4, 29.95, 29.95, 29.95, 29.95, 29.95, 29.5, 29.5, 29.5, 29.06, 29.06, 29.06, 28.61, 28.61, 28.61, 28.61, 29.06, 29.06, 28.61, 28.61, 28.16, 28.16, 28.16, 27.72, 27.72, 27.72, 27.72, 27.72, 27.72, 27.72, 27.72, 27.72, 27.27, 27.27, 27.27, 27.27, 27.27, 27.27, 27.27, 27.27, 27.27, 27.27, 27.27, 27.27, 26.82, 27.27, 26.82, 26.82, 26.37, 26.37, 26.37, 26.37, 26.82, 26.82, 26.82, 26.82, 26.82, 27.27, 27.27, 27.27, 27.72, 27.72, 27.72, 27.72, 27.27, 26.82, 26.82, 27.27, 27.27, 26.82, 25.48, 24.14, 24.14, 24.59, 25.03, 25.48, 25.48, 25.93, 26.82, 26.82, 26.82, 27.27, 27.72, 28.16, 28.16, 28.16, 27.27, 27.27, 27.72, 27.72, 27.72, 26.82, 26.82, 26.82, 26.37, 26.37, 30.4, 30.4, 30.4, 30.4, 29.95, 29.95, 29.95, 29.95, 29.5, 29.5, 29.5, 29.5, 29.06, 29.06, 28.61, 28.61, 28.61, 28.61, 29.06, 29.06, 28.61, 28.61, 28.16, 28.16, 28.16, 27.72, 27.72, 27.72, 27.72, 27.72, 27.72, 27.72, 27.72, 27.27, 27.27, 27.27, 27.27, 27.27, 27.27, 27.27, 27.27, 27.27, 27.27, 27.27, 27.27, 27.27, 26.82, 27.27, 26.82, 26.82, 26.37, 26.82, 26.82, 26.82, 26.82, 26.82, 26.82, 26.82, 26.82, 26.82, 27.27, 27.27, 27.72, 27.72, 27.72, 27.72, 27.72, 27.27, 26.82, 27.27, 27.72, 27.72, 26.37, 24.14, 23.25, 24.14, 25.48, 26.37, 26.37, 26.37, 27.27, 27.72, 27.72, 27.72, 28.16, 28.16, 28.16, 27.72, 27.27, 27.27, 27.72, 28.16, 28.16, 27.72, 27.27, 26.82, 26.82, 26.82, 30.4, 30.4, 30.4, 30.4, 30.4, 29.95, 29.95, 29.95, 29.95, 29.5, 29.5, 29.5, 29.06, 29.06, 29.06, 28.61, 28.61, 28.61, 28.61, 28.61, 28.61, 28.61, 28.16, 28.16, 28.16, 28.16, 27.72, 27.72, 27.72, 27.72, 27.72, 27.72, 27.72, 27.72, 27.27, 27.27, 27.27, 27.27, 27.27, 27.27, 27.27, 27.27, 27.27, 27.27, 27.27, 27.27, 26.82, 26.82, 26.82, 26.82, 26.82, 26.82, 26.82, 26.82, 26.82, 26.82, 26.82, 26.82, 26.82, 26.82, 27.27, 27.27, 27.72, 27.72, 27.72, 27.72, 28.16, 28.16, 27.27, 27.27, 27.72, 28.16, 27.27, 25.03, 22.8, 23.25, 25.03, 25.93, 26.37, 26.82, 27.72, 28.61, 28.61, 28.61, 28.61, 28.61, 27.72, 27.27, 27.27, 27.27, 27.72, 28.16, 28.16, 28.16, 27.72, 27.27, 26.82, 26.82, 30.4, 30.4, 30.4, 30.4, 30.4, 30.4, 29.95, 29.95, 29.95, 29.5, 29.5, 29.5, 29.06, 29.06, 29.06, 28.61, 28.61, 28.61, 28.61, 28.61, 28.61, 28.61, 28.61, 28.16, 28.16, 28.16, 28.16, 27.72, 27.72, 27.72, 27.72, 27.72, 27.72, 27.72, 27.72, 27.27, 27.27, 27.27, 27.27, 27.27, 27.27, 27.27, 27.27, 27.27, 27.27, 27.27, 26.82, 26.82, 26.82, 26.82, 26.82, 26.82, 27.27, 27.27, 27.27, 27.27, 27.27, 26.82, 26.82, 27.27, 27.27, 27.72, 28.16, 28.16, 28.16, 28.16, 28.16, 28.61, 28.16, 28.16, 28.16, 28.61, 28.16, 26.37, 23.69, 23.69, 25.03, 25.93, 25.93, 26.82, 28.16, 28.61, 29.06, 29.06, 29.06, 28.61, 28.16, 27.27, 27.27, 27.72, 28.16, 28.16, 28.16, 27.72, 27.72, 27.27, 27.27, 27.27, 30.4, 30.4, 30.4, 30.4, 30.4, 30.4, 29.95, 29.95, 29.95, 29.95, 29.5, 29.5, 29.5, 29.06, 29.06, 29.06, 28.61, 28.61, 28.61, 28.61, 28.61, 28.61, 28.61, 28.61, 28.16, 28.16, 28.16, 28.16, 27.72, 27.72, 27.72, 27.72, 27.72, 27.72, 27.72, 27.72, 27.27, 27.27, 27.27, 27.27, 27.27, 27.27, 27.27, 27.27, 27.27, 27.27, 27.27, 27.27, 26.82, 27.27, 27.27, 27.27, 27.27, 27.27, 27.27, 27.27, 27.27, 27.27, 27.27, 27.27, 27.72, 28.16, 28.16, 28.16, 28.16, 28.16, 28.61, 29.06, 29.06, 28.61, 29.06, 29.06, 28.61, 27.27, 25.48, 24.59, 25.48, 25.93, 25.93, 26.82, 27.72, 28.61, 29.06, 29.06, 29.06, 29.06, 28.16, 27.72, 27.72, 28.16, 28.16, 28.16, 28.16, 28.16, 27.72, 27.27, 27.27, 27.27, 30.4, 30.4, 30.4, 30.4, 30.4, 30.4, 30.4, 29.95, 29.95, 29.95, 29.5, 29.5, 29.5, 29.5, 29.06, 29.06, 29.06, 28.61, 28.61, 28.61, 28.61, 28.61, 28.61, 28.61, 28.61, 28.16, 28.16, 28.16, 28.16, 28.16, 28.16, 28.16, 28.16, 27.72, 27.72, 27.72, 27.72, 27.72, 27.72, 27.72, 27.72, 27.72, 27.27, 27.27, 27.27, 27.27, 27.27, 27.27, 27.27, 27.27, 27.27, 27.27, 27.72, 27.72, 27.72, 27.72, 27.72, 27.72, 27.72, 28.16, 28.16, 28.61, 28.61, 28.61, 28.61, 28.61, 29.06, 29.06, 29.06, 29.5, 29.5, 29.5, 28.61, 28.16, 26.82, 25.93, 25.93, 25.93, 26.37, 26.82, 27.27, 28.16, 28.61, 29.06, 29.06, 28.61, 28.61, 28.16, 28.61, 28.61, 28.61, 28.61, 28.16, 28.16, 27.72, 27.72, 27.27, 27.27, 30.84, 30.84, 30.84, 30.4, 30.4, 30.4, 30.4, 29.95, 29.95, 29.95, 29.5, 29.5, 29.5, 29.5, 29.5, 29.06, 29.06, 29.06, 29.06, 29.06, 28.61, 28.61, 28.61, 28.61, 28.61, 28.61, 28.16, 28.16, 28.16, 28.16, 28.16, 28.16, 28.16, 28.16, 27.72, 27.72, 27.72, 27.72, 27.72, 27.72, 27.72, 27.72, 27.72, 27.72, 27.72, 27.72, 27.72, 27.72, 27.72, 27.72, 27.72, 27.72, 27.72, 28.16, 28.16, 28.16, 28.16, 28.16, 28.16, 28.61, 28.61, 28.61, 28.61, 28.61, 28.61, 29.06, 29.06, 29.06, 29.5, 29.95, 29.95, 29.95, 29.5, 28.61, 27.27, 26.82, 26.37, 26.37, 26.37, 26.82, 28.16, 28.16, 28.61, 28.61, 28.61, 28.61, 28.16, 28.61, 28.61, 29.06, 29.06, 28.61, 28.61, 28.16, 28.16, 27.72, 27.27, 27.27, 30.84, 30.84, 30.84, 30.84, 30.4, 30.4, 30.4, 29.95, 29.95, 29.95, 29.95, 29.5, 29.95, 29.5, 29.5, 29.5, 29.06, 29.06, 29.06, 29.06, 29.06, 29.06, 28.61, 28.61, 28.61, 28.61, 28.61, 28.61, 28.61, 28.61, 28.61, 28.16, 28.16, 28.16, 28.16, 28.16, 28.16, 28.16, 28.16, 28.16, 28.16, 28.16, 28.16, 27.72, 27.72, 27.72, 28.16, 28.16, 28.16, 28.16, 28.16, 28.16, 28.16, 28.61, 28.61, 28.61, 28.61, 28.61, 28.61, 29.06, 29.06, 29.06, 29.06, 29.06, 29.06, 29.5, 29.5, 29.5, 29.5, 29.95, 30.4, 30.84, 30.4, 29.06, 27.72, 27.27, 26.82, 26.37, 26.37, 27.72, 28.61, 28.61, 28.61, 28.61, 28.16, 28.16, 28.16, 28.61, 29.06, 29.06, 29.06, 29.06, 28.61, 28.16, 28.16, 27.72, 27.72, 27.72, 30.84, 30.84, 30.84, 30.84, 30.84, 30.4, 30.4, 30.4, 29.95, 29.95, 29.95, 29.95, 29.95, 29.95, 29.5, 29.5, 29.5, 29.06, 29.06, 29.06, 29.06, 29.06, 29.06, 29.06, 29.06, 28.61, 28.61, 28.61, 28.61, 28.61, 28.61, 28.61, 28.61, 28.61, 28.61, 28.61, 28.61, 28.61, 28.61, 28.61, 28.61, 28.61, 28.61, 28.16, 28.16, 28.61, 28.61, 28.61, 28.61, 28.61, 28.61, 28.61, 28.61, 28.61, 29.06, 29.06, 29.06, 29.06, 29.06, 29.06, 29.06, 29.5, 29.5, 29.5, 29.5, 29.95, 29.95, 29.5, 29.95, 30.4, 30.84, 31.29, 30.84, 29.95, 28.61, 27.72, 26.82, 26.37, 26.82, 27.72, 28.61, 28.61, 28.61, 28.61, 28.61, 28.16, 28.61, 28.61, 29.06, 29.06, 29.06, 29.06, 28.61, 28.16, 28.16, 28.16, 28.16, 27.72, 31.29, 31.29, 30.84, 30.84, 30.84, 30.84, 30.4, 30.4, 30.4, 29.95, 30.4, 30.4, 29.95, 29.95, 29.95, 29.95, 29.5, 29.5, 29.5, 29.5, 29.5, 29.5, 29.06, 29.06, 29.06, 29.06, 29.06, 29.06, 29.06, 29.06, 29.06, 29.06, 29.06, 29.06, 29.06, 29.06, 29.06, 28.61, 28.61, 28.61, 28.61, 28.61, 29.06, 29.06, 28.61, 28.61, 29.06, 29.06, 29.06, 29.06, 29.06, 29.06, 29.06, 29.06, 29.5, 29.5, 29.5, 29.5, 29.5, 29.5, 29.5, 29.5, 29.95, 29.95, 29.95, 29.95, 29.95, 29.95, 30.4, 30.4, 30.84, 31.29, 31.29, 31.29, 30.4, 28.61, 26.82, 26.37, 26.37, 27.27, 28.16, 28.61, 29.06, 29.06, 28.61, 28.61, 28.61, 29.06, 29.06, 29.06, 29.06, 28.61, 28.61, 28.16, 28.16, 28.16, 28.16, 28.16, 31.29, 31.29, 31.29, 31.29, 30.84, 30.84, 30.84, 30.4, 30.4, 30.4, 30.4, 30.4, 30.4, 30.4, 29.95, 29.95, 29.95, 29.95, 29.95, 29.95, 29.5, 29.5, 29.5, 29.5, 29.5, 29.5, 29.5, 29.5, 29.5, 29.5, 29.5, 29.5, 29.5, 29.5, 29.5, 29.5, 29.5, 29.06, 29.06, 29.06, 29.06, 29.06, 29.5, 29.5, 29.06, 29.06, 29.5, 29.5, 29.5, 29.5, 29.5, 29.5, 29.5, 29.5, 29.5, 29.5, 29.5, 29.5, 29.5, 29.5, 29.5, 29.95, 29.95, 29.95, 30.4, 30.4, 29.95, 30.4, 30.4, 30.4, 30.84, 31.29, 31.29, 31.74, 31.29, 29.95, 27.72, 26.37, 25.93, 26.37, 26.82, 27.72, 28.61, 29.06, 29.06, 29.06, 29.5, 29.5, 29.5, 29.5, 29.06, 28.61, 28.61, 28.16, 28.16, 28.16, 27.72, 27.72, 31.29, 31.29, 31.29, 31.29, 31.29, 30.84, 30.84, 30.84, 30.84, 30.84, 30.84, 30.4, 30.4, 30.4, 30.4, 30.4, 30.4, 30.4, 29.95, 29.95, 29.95, 29.95, 29.95, 29.95, 29.95, 29.95, 29.95, 29.95, 29.95, 29.95, 29.95, 29.95, 29.95, 29.95, 29.95, 29.95, 29.95, 29.95, 29.5, 29.5, 29.5, 29.5, 29.95, 29.95, 29.95, 29.5, 29.5, 29.95, 29.95, 29.95, 29.95, 29.95, 29.95, 29.95, 29.95, 29.95, 29.95, 29.95, 29.95, 29.95, 29.95, 29.95, 29.95, 30.4, 30.4, 30.4, 30.4, 30.84, 30.84, 30.84, 30.84, 31.29, 31.29, 31.74, 31.74, 31.29, 29.95, 27.72, 26.82, 26.37, 25.93, 26.37, 27.72, 28.61, 29.06, 29.5, 29.5, 29.5, 29.5, 29.5, 29.06, 29.06, 28.61, 28.16, 27.72, 27.72, 27.72, 27.72, 31.74, 31.74, 31.74, 31.29, 31.29, 31.29, 30.84, 30.84, 30.84, 30.84, 30.84, 30.84, 30.84, 30.84, 30.4, 30.4, 30.4, 30.4, 30.4, 30.4, 30.4, 30.4, 30.4, 30.4, 29.95, 29.95, 29.95, 29.95, 30.4, 30.4, 30.4, 30.4, 30.4, 30.4, 30.4, 30.4, 30.4, 30.4, 29.95, 29.95, 29.95, 29.95, 29.95, 30.4, 30.4, 30.4, 29.95, 30.4, 30.4, 30.4, 30.4, 30.4, 30.4, 30.4, 30.4, 30.4, 30.4, 30.4, 30.4, 30.4, 30.4, 30.4, 30.4, 30.4, 30.4, 30.84, 30.84, 30.84, 30.84, 30.84, 30.84, 31.29, 31.29, 31.29, 31.74, 31.74, 31.29, 29.95, 28.61, 27.27, 26.37, 25.93, 26.82, 27.72, 28.61, 29.06, 29.5, 29.5, 29.95, 29.5, 29.5, 29.06, 28.61, 27.72, 27.72, 27.72, 27.72, 27.72, 31.74, 31.74, 31.74, 31.74, 31.74, 31.29, 31.29, 31.29, 31.29, 31.29, 31.29, 30.84, 30.84, 30.84, 30.84, 30.84, 30.84, 30.84, 30.84, 30.84, 30.84, 30.84, 30.4, 30.4, 30.4, 30.4, 30.4, 30.4, 30.84, 30.84, 30.84, 30.84, 30.84, 30.84, 30.84, 30.84, 30.84, 30.4, 30.4, 30.4, 30.4, 30.4, 30.4, 30.4, 30.4, 30.4, 30.4, 30.4, 30.4, 30.4, 30.4, 30.84, 30.84, 30.84, 30.84, 30.4, 30.4, 30.4, 30.4, 30.4, 30.4, 30.4, 30.4, 30.4, 30.84, 30.84, 30.84, 30.84, 31.29, 31.29, 30.84, 31.29, 31.74, 31.29, 31.74, 32.19, 31.74, 31.29, 30.4, 29.06, 27.72, 26.37, 26.37, 27.27, 27.72, 28.61, 29.06, 29.5, 29.5, 29.95, 29.5, 28.61, 28.16, 27.72, 27.72, 27.72, 27.72, 27.72, 32.19, 32.19, 31.74, 31.74, 31.74, 31.74, 31.74, 31.74, 31.29, 31.29, 31.29, 31.29, 31.29, 31.29, 31.29, 31.29, 31.29, 31.29, 31.29, 31.29, 31.29, 30.84, 30.84, 30.84, 30.84, 30.84, 30.84, 30.84, 31.29, 31.29, 31.29, 31.29, 31.29, 31.29, 31.29, 30.84, 30.84, 30.84, 30.84, 30.84, 30.84, 30.84, 30.84, 30.84, 30.84, 30.84, 30.84, 30.84, 30.84, 30.84, 30.84, 30.84, 30.84, 30.84, 30.84, 30.84, 30.84, 30.84, 30.84, 30.84, 30.84, 30.84, 30.84, 30.84, 30.84, 31.29, 31.29, 31.29, 31.29, 31.29, 31.29, 31.29, 31.74, 31.29, 31.74, 32.19, 31.74, 31.29, 31.29, 30.4, 29.06, 27.27, 27.27, 27.27, 27.27, 27.72, 28.61, 29.06, 29.5, 29.5, 29.06, 28.61, 28.16, 28.16, 27.72, 27.72, 27.72, 27.72, 32.19, 32.19, 32.19, 32.19, 32.19, 32.19, 31.74, 31.74, 31.74, 31.74, 31.74, 31.74, 31.74, 31.74, 31.74, 31.74, 31.74, 31.74, 31.74, 31.74, 31.29, 31.29, 31.29, 31.29, 31.29, 31.29, 31.29, 31.29, 31.29, 31.74, 31.74, 31.74, 31.74, 31.29, 31.29, 31.29, 31.29, 31.29, 31.29, 31.29, 31.29, 31.29, 31.29, 31.29, 31.29, 31.29, 31.29, 31.29, 31.29, 31.29, 31.29, 31.29, 31.29, 31.29, 31.29, 31.29, 31.29, 31.29, 31.29, 31.29, 31.29, 31.29, 31.29, 31.29, 31.29, 31.29, 31.29, 31.29, 31.29, 31.29, 31.29, 31.74, 31.74, 31.74, 31.74, 31.74, 31.74, 31.74, 31.29, 31.29, 29.95, 28.61, 28.16, 27.72, 27.72, 27.72, 28.16, 29.06, 29.5, 29.5, 29.06, 28.61, 28.16, 28.16, 27.72, 27.72, 27.72, 27.72, 32.63, 32.63, 32.19, 32.63, 32.63, 32.19, 32.19, 32.19, 32.19, 32.19, 32.19, 32.19, 32.19, 32.19, 32.19, 32.19, 32.19, 32.19, 32.19, 31.74, 31.74, 31.74, 31.74, 31.74, 31.74, 31.74, 31.74, 31.74, 31.74, 31.74, 31.74, 31.74, 31.74, 31.74, 31.74, 31.74, 31.74, 31.29, 31.29, 31.29, 31.29, 31.29, 31.29, 31.29, 31.29, 31.29, 31.29, 31.29, 31.74, 31.74, 31.74, 31.29, 31.29, 31.29, 31.29, 31.29, 31.29, 31.29, 31.29, 31.29, 31.29, 31.29, 31.29, 31.29, 31.29, 31.29, 31.29, 31.29, 31.29, 31.29, 31.74, 31.74, 31.74, 31.74, 31.74, 31.74, 31.74, 31.74, 31.74, 31.74, 30.84, 29.5, 28.61, 27.72, 27.72, 27.72, 28.16, 28.61, 29.5, 29.5, 29.06, 28.61, 28.16, 27.72, 27.72, 27.72, 27.72, 27.72, 32.63, 32.63, 33.08, 33.08, 32.63, 32.63, 32.63, 32.63, 32.63, 32.63, 32.63, 32.63, 32.63, 32.63, 32.63, 32.63, 32.63, 32.19, 32.19, 32.19, 32.19, 32.19, 32.19, 32.19, 32.19, 32.19, 32.19, 32.19, 32.19, 32.19, 32.19, 32.19, 32.19, 32.19, 31.74, 31.74, 31.74, 31.74, 31.74, 31.74, 31.74, 31.74, 31.74, 31.74, 31.74, 31.74, 31.74, 31.74, 31.74, 31.74, 31.74, 31.74, 31.74, 31.74, 31.74, 31.74, 31.74, 31.74, 31.74, 31.74, 31.74, 31.74, 31.74, 31.74, 31.74, 31.29, 31.29, 31.29, 31.29, 31.29, 31.29, 31.74, 31.74, 31.74, 31.74, 31.74, 31.74, 31.74, 31.74, 31.74, 31.29, 30.4, 29.06, 27.27, 27.27, 28.16, 28.61, 29.06, 29.06, 29.06, 29.06, 28.61, 28.16, 28.16, 27.72, 27.72, 27.72, 27.72, 33.08, 33.08, 33.08, 33.08, 33.08, 33.08, 33.08, 32.63, 32.63, 32.63, 33.08, 33.08, 33.08, 33.08, 33.08, 32.63, 32.63, 32.63, 32.63, 32.63, 32.63, 32.63, 32.19, 32.19, 32.19, 32.19, 32.19, 32.19, 32.19, 32.19, 32.19, 32.19, 32.19, 32.19, 32.19, 32.19, 32.19, 32.19, 32.19, 32.19, 32.19, 32.19, 32.19, 32.19, 32.19, 32.19, 32.19, 32.19, 32.19, 32.19, 32.19, 32.19, 32.19, 32.19, 31.74, 31.74, 31.74, 31.74, 31.74, 31.74, 31.74, 31.74, 31.74, 31.74, 31.74, 31.74, 31.29, 31.29, 31.29, 31.29, 31.29, 31.74, 31.74, 31.74, 32.19, 31.74, 31.74, 32.19, 32.19, 31.74, 31.29, 31.29, 29.95, 27.72, 26.82, 28.16, 28.61, 29.06, 29.06, 29.06, 29.06, 29.06, 28.61, 28.16, 27.72, 27.72, 27.72, 27.72, 33.08, 33.53, 33.53, 33.53, 33.08, 33.08, 33.08, 33.08, 33.08, 33.08, 33.08, 33.08, 33.53, 33.08, 33.08, 33.08, 32.63, 32.63, 32.63, 33.08, 33.08, 32.63, 32.63, 32.63, 32.63, 32.63, 32.63, 32.63, 32.63, 32.63, 32.63, 32.63, 32.19, 32.19, 32.19, 32.19, 32.19, 32.19, 32.19, 32.19, 32.19, 32.19, 32.19, 32.19, 32.19, 32.19, 32.19, 32.63, 32.63, 32.63, 32.63, 32.19, 32.19, 32.19, 32.19, 32.19, 32.19, 32.19, 32.19, 32.19, 32.19, 31.74, 31.74, 31.74, 31.74, 31.74, 31.74, 31.74, 31.29, 31.29, 31.29, 31.29, 31.29, 31.74, 32.19, 31.74, 31.74, 32.19, 32.19, 31.74, 31.74, 31.29, 30.4, 28.16, 28.16, 28.16, 28.16, 29.06, 29.5, 29.06, 28.61, 29.06, 28.61, 28.16, 27.72, 27.72, 27.72, 27.72, 33.53, 33.53, 33.53, 33.53, 33.53, 33.53, 33.53, 33.53, 33.53, 33.53, 33.53, 33.53, 33.53, 33.53, 33.08, 33.08, 33.08, 33.08, 33.08, 33.08, 33.08, 33.08, 33.08, 32.63, 32.63, 32.63, 32.63, 32.63, 32.63, 32.63, 32.63, 32.63, 32.63, 32.63, 32.63, 32.63, 32.63, 32.63, 32.63, 32.63, 32.63, 32.63, 32.63, 32.63, 32.63, 32.63, 32.63, 32.63, 32.63, 32.63, 32.63, 32.63, 32.63, 32.63, 32.63, 32.19, 32.19, 32.19, 32.19, 32.19, 32.19, 32.19, 32.19, 31.74, 31.74, 31.74, 31.74, 31.74, 31.29, 31.29, 31.29, 31.29, 30.84, 31.29, 31.74, 31.74, 32.19, 32.19, 32.19, 32.19, 31.74, 31.74, 30.84, 27.27, 28.16, 28.16, 28.16, 29.06, 29.5, 29.5, 29.06, 28.61, 28.61, 28.16, 27.72, 27.72, 27.72, 27.72, 33.97, 33.97, 33.97, 33.97, 33.53, 33.53, 33.53, 33.53, 33.53, 33.97, 33.97, 33.97, 33.97, 33.53, 33.53, 33.53, 33.08, 33.08, 33.53, 33.53, 33.53, 33.08, 33.08, 33.08, 33.08, 32.63, 32.63, 32.63, 32.63, 32.63, 32.63, 32.63, 32.63, 32.63, 32.63, 32.63, 32.63, 32.63, 32.63, 33.08, 33.08, 33.08, 33.08, 33.08, 33.08, 33.08, 33.08, 33.08, 33.08, 33.08, 32.63, 32.63, 32.63, 32.63, 32.63, 32.63, 32.63, 32.63, 32.19, 32.19, 32.19, 32.19, 32.19, 32.19, 32.19, 31.74, 31.74, 31.74, 31.74, 31.74, 31.29, 31.29, 31.29, 31.29, 31.74, 31.74, 31.74, 31.74, 31.74, 32.19, 32.19, 31.74, 29.06, 27.27, 27.72, 28.16, 28.16, 29.06, 29.5, 29.95, 29.5, 29.06, 28.61, 28.16, 27.72, 27.72, 27.72, 27.72, 33.97, 33.97, 33.97, 33.97, 33.97, 33.97, 33.97, 33.97, 33.97, 33.97, 33.97, 33.97, 33.97, 33.97, 33.53, 33.53, 33.53, 33.53, 33.53, 33.53, 33.53, 33.53, 33.08, 33.08, 33.08, 33.08, 33.08, 33.08, 33.08, 33.08, 33.08, 33.08, 33.08, 33.08, 33.08, 33.08, 33.08, 33.08, 33.08, 33.08, 33.08, 33.08, 33.08, 33.08, 33.08, 33.08, 33.08, 33.08, 33.08, 33.08, 33.08, 33.08, 32.63, 32.63, 32.63, 32.63, 32.63, 32.63, 32.63, 32.19, 32.19, 32.19, 32.19, 32.19, 32.19, 32.19, 31.74, 32.19, 31.74, 31.74, 31.29, 31.74, 31.29, 31.29, 31.29, 31.29, 31.74, 31.74, 31.74, 31.74, 32.19, 32.19, 29.95, 27.72, 26.82, 27.72, 27.72, 28.16, 29.06, 29.95, 29.5, 29.06, 29.06, 28.61, 28.16, 28.16, 28.16, 28.16, 34.42, 34.42, 34.42, 33.97, 33.97, 33.97, 33.97, 33.97, 34.42, 34.42, 34.42, 33.97, 33.97, 33.97, 33.97, 33.97, 33.97, 33.53, 33.53, 33.53, 33.53, 33.53, 33.53, 33.08, 33.08, 33.08, 33.08, 33.08, 33.08, 33.08, 33.08, 33.08, 33.08, 33.08, 33.08, 33.08, 33.08, 33.53, 33.53, 33.53, 33.53, 33.53, 33.53, 33.53, 33.53, 33.53, 33.53, 33.53, 33.08, 33.08, 33.08, 33.08, 33.08, 33.08, 33.08, 32.63, 32.63, 32.63, 32.63, 32.63, 32.19, 32.19, 32.19, 32.19, 32.19, 32.19, 31.74, 31.74, 31.74, 31.74, 31.74, 31.29, 31.29, 31.29, 31.29, 31.29, 31.74, 31.74, 31.74, 31.74, 32.19, 32.19, 30.84, 28.61, 26.37, 26.82, 27.27, 27.27, 28.16, 29.5, 29.5, 29.5, 29.06, 29.06, 28.61, 28.61, 28.61, 28.61, 34.42, 34.42, 34.42, 34.42, 34.42, 34.42, 34.42, 34.42, 34.42, 34.42, 34.42, 34.42, 33.97, 33.97, 33.97, 33.97, 33.97, 33.97, 33.97, 33.97, 33.53, 33.53, 33.53, 33.53, 33.53, 33.08, 33.08, 33.08, 33.08, 33.08, 33.08, 33.08, 33.53, 33.53, 33.53, 33.53, 33.53, 33.53, 33.53, 33.53, 33.53, 33.53, 33.53, 33.53, 33.53, 33.53, 33.53, 33.53, 33.53, 33.08, 33.08, 33.08, 33.08, 33.08, 33.08, 33.08, 32.63, 32.63, 32.63, 32.63, 32.19, 32.19, 32.19, 32.19, 32.19, 32.19, 31.74, 31.74, 31.74, 31.74, 31.74, 31.29, 31.29, 31.74, 31.29, 31.29, 31.29, 31.29, 31.74, 31.74, 32.19, 32.19, 31.74, 29.5, 27.27, 27.27, 27.27, 27.27, 27.72, 28.61, 29.06, 29.06, 29.06, 29.06, 29.06, 29.06, 29.06, 29.06, 34.42, 34.42, 34.42, 34.42, 34.42, 34.42, 34.42, 34.42, 34.42, 34.42, 34.42, 34.42, 34.42, 34.42, 33.97, 33.97, 33.97, 33.97, 33.97, 33.97, 33.97, 33.53, 33.53, 33.53, 33.53, 33.53, 33.53, 33.53, 33.53, 33.53, 33.53, 33.53, 33.53, 33.53, 33.53, 33.53, 33.53, 33.53, 33.97, 33.97, 33.97, 33.97, 33.97, 33.97, 33.53, 33.53, 33.53, 33.53, 33.53, 33.53, 33.53, 33.08, 33.08, 33.08, 33.08, 33.08, 32.63, 32.63, 32.63, 32.63, 32.19, 32.19, 32.19, 32.19, 32.19, 32.19, 31.74, 31.74, 31.74, 31.74, 31.29, 31.29, 31.29, 31.29, 31.29, 31.29, 31.29, 31.29, 31.74, 31.74, 32.19, 32.19, 31.74, 30.4, 28.16, 27.72, 27.72, 27.27, 27.27, 27.72, 28.16, 28.61, 28.61, 28.61, 29.06, 29.06, 29.06, 29.06, 34.42, 34.42, 34.42, 34.42, 34.42, 34.42, 34.42, 34.42, 34.42, 34.42, 34.42, 34.42, 34.42, 34.42, 34.42, 33.97, 33.97, 33.97, 33.97, 33.97, 33.97, 33.97, 33.53, 33.53, 33.53, 33.53, 33.53, 33.53, 33.53, 33.53, 33.53, 33.53, 33.53, 33.53, 33.53, 33.97, 33.97, 33.97, 33.97, 33.97, 33.97, 33.97, 33.97, 33.97, 33.97, 33.53, 33.53, 33.53, 33.53, 33.53, 33.53, 33.08, 33.08, 33.08, 33.08, 33.08, 33.08, 32.63, 32.63, 32.63, 32.19, 32.19, 32.19, 32.19, 32.19, 32.19, 31.74, 31.74, 31.74, 31.74, 31.74, 31.29, 31.29, 31.29, 31.29, 31.29, 31.29, 31.29, 31.29, 31.74, 31.74, 31.74, 31.74, 30.84, 29.06, 28.61, 28.61, 28.16, 27.27, 27.27, 27.72, 28.16, 28.16, 28.16, 28.61, 29.06, 29.06, 29.06, 34.42, 34.42, 34.42, 34.42, 34.42, 34.42, 34.42, 34.42, 34.42, 34.42, 34.42, 34.42, 34.42, 34.42, 34.42, 34.42, 33.97, 33.97, 33.97, 33.97, 33.97, 33.97, 33.97, 33.97, 33.53, 33.53, 33.53, 33.53, 33.53, 33.53, 33.53, 33.53, 33.97, 33.97, 33.97, 33.97, 33.97, 33.97, 33.97, 33.97, 33.97, 33.97, 33.97, 33.97, 33.97, 33.97, 33.53, 33.53, 33.53, 33.53, 33.53, 33.53, 33.08, 33.08, 33.08, 33.08, 33.08, 32.63, 32.63, 32.63, 32.19, 32.19, 32.19, 32.19, 32.19, 32.19, 31.74, 31.74, 31.74, 31.74, 31.74, 31.29, 31.29, 31.29, 31.29, 31.29, 31.29, 31.29, 31.29, 31.74, 31.74, 31.74, 31.74, 31.29, 29.95, 29.06, 28.61, 28.16, 27.72, 27.72, 27.72, 27.72, 27.72, 27.72, 28.16, 29.06, 29.06, 29.06, 34.42, 34.42, 34.42, 34.42, 34.42, 34.42, 34.42, 34.42, 34.42, 34.42, 34.42, 34.42, 34.42, 34.42, 34.42, 34.42, 33.97, 33.97, 33.97, 33.97, 33.97, 33.97, 33.97, 33.97, 33.97, 33.97, 33.97, 33.97, 33.97, 33.97, 33.97, 33.97, 33.97, 33.97, 33.97, 33.97, 33.97, 33.97, 33.97, 33.97, 33.97, 33.97, 33.97, 33.97, 33.97, 33.97, 33.97, 33.53, 33.53, 33.53, 33.53, 33.53, 33.53, 33.08, 33.08, 33.08, 33.08, 32.63, 32.63, 32.63, 32.63, 32.19, 32.19, 32.19, 32.19, 32.19, 31.74, 31.74, 31.74, 31.74, 31.74, 31.74, 31.29, 31.29, 31.29, 31.29, 31.29, 31.29, 31.29, 31.74, 31.74, 31.74, 31.74, 31.29, 30.4, 29.5, 29.06, 28.61, 28.16, 27.72, 27.72, 27.72, 27.27, 27.72, 28.16, 28.61, 28.61, 28.61, 34.42, 34.42, 34.42, 34.42, 34.42, 34.42, 34.42, 34.42, 34.42, 34.42, 34.42, 34.42, 34.42, 34.42, 34.42, 34.42, 33.97, 33.97, 33.97, 33.97, 33.97, 33.97, 33.97, 33.97, 33.97, 33.97, 33.97, 33.97, 33.97, 33.97, 33.97, 33.97, 33.97, 33.97, 33.97, 33.97, 33.97, 33.97, 33.97, 33.97, 33.97, 33.97, 33.97, 33.97, 33.97, 33.97, 33.97, 33.53, 33.53, 33.53, 33.53, 33.53, 33.53, 33.08, 33.08, 33.08, 33.08, 32.63, 32.63, 32.63, 32.63, 32.19, 32.19, 32.19, 32.19, 32.19, 31.74, 31.74, 31.74, 31.74, 31.74, 31.74, 31.29, 31.29, 31.29, 31.29, 31.29, 31.29, 31.29, 31.74, 31.74, 31.74, 31.74, 31.29, 30.84, 30.4, 29.5, 29.06, 28.61, 27.72, 27.27, 27.27, 27.27, 27.72, 28.16, 28.61, 28.61, 28.61]}, {"header": {"parameterCategory": 1, "parameterNumber": 3, "dx": 0.06612293990616946, "dy": 0.0552356325346848, "nx": 98, "ny": 59, "la1": 35.046912555036876, "la2": 31.78801023549047, "lo1": -121.43107172385933, "lo2": -114.95102361305473, "refTime": "2026041221"}, "data": [0.0, 0.45, 0.89, 0.89, 1.34, 1.34, 1.79, 1.79, 2.24, 2.68, 2.68, 3.13, 3.13, 3.58, 3.58, 4.02, 4.02, 4.02, 4.47, 4.47, 4.47, 4.47, 4.47, 4.47, 4.47, 4.47, 4.47, 4.47, 4.47, 4.47, 4.47, 4.47, 4.92, 4.92, 4.92, 5.36, 5.36, 5.36, 5.36, 5.36, 5.36, 5.36, 5.36, 5.36, 5.36, 4.92, 4.92, 4.92, 4.92, 4.92, 4.92, 4.92, 4.92, 5.36, 5.36, 5.36, 5.36, 5.36, 5.81, 5.81, 5.81, 5.81, 5.81, 5.81, 6.26, 6.26, 6.71, 7.15, 7.6, 7.6, 8.05, 8.05, 8.05, 8.05, 8.05, 7.6, 7.6, 7.6, 7.6, 7.6, 7.6, 8.05, 8.49, 8.49, 8.94, 8.94, 9.39, 9.83, 10.28, 10.28, 10.28, 9.83, 10.28, 10.28, 10.73, 10.28, 10.73, 10.73, 0.45, 0.45, 0.89, 0.89, 1.34, 1.34, 1.79, 1.79, 2.24, 2.68, 2.68, 3.13, 3.13, 3.58, 3.58, 4.02, 4.02, 4.47, 4.47, 4.47, 4.47, 4.47, 4.47, 4.47, 4.47, 4.47, 4.47, 4.47, 4.47, 4.47, 4.47, 4.02, 4.47, 4.47, 4.92, 5.36, 5.36, 5.81, 5.81, 5.36, 5.36, 5.36, 5.36, 5.36, 4.92, 4.92, 4.92, 4.92, 4.92, 4.92, 4.92, 5.36, 5.36, 5.36, 5.36, 5.36, 5.81, 5.81, 5.81, 5.81, 5.81, 5.81, 5.81, 6.26, 6.26, 6.71, 7.15, 7.6, 7.6, 7.6, 8.05, 8.05, 8.05, 8.05, 8.05, 8.05, 7.6, 7.6, 7.6, 7.6, 7.6, 8.05, 8.49, 8.49, 8.94, 8.94, 9.39, 9.83, 10.28, 10.28, 10.28, 9.83, 10.28, 10.28, 10.73, 10.28, 10.73, 10.73, 0.45, 0.45, 0.89, 0.89, 1.34, 1.34, 1.79, 1.79, 2.24, 2.24, 2.68, 3.13, 3.13, 3.58, 3.58, 4.02, 4.02, 4.47, 4.47, 4.47, 4.92, 4.92, 4.92, 4.47, 4.47, 4.47, 4.47, 4.47, 4.92, 4.92, 4.47, 4.47, 4.02, 4.02, 4.47, 4.92, 5.36, 5.81, 5.81, 5.81, 5.36, 5.36, 5.36, 5.36, 5.36, 5.36, 5.36, 5.36, 5.36, 5.36, 5.36, 5.36, 5.36, 5.36, 5.81, 5.81, 5.81, 5.81, 5.81, 6.26, 6.26, 6.26, 6.26, 6.26, 6.71, 7.15, 7.6, 7.6, 7.6, 7.6, 8.05, 8.05, 8.49, 8.49, 8.49, 8.05, 7.6, 7.6, 7.6, 7.6, 7.6, 8.05, 8.49, 8.94, 8.94, 9.39, 9.83, 10.28, 10.28, 9.83, 9.83, 9.83, 10.28, 10.28, 10.28, 10.28, 10.28, 10.73, 0.45, 0.45, 0.89, 0.89, 1.34, 1.34, 1.79, 1.79, 2.24, 2.24, 2.68, 3.13, 3.13, 3.58, 3.58, 4.02, 4.02, 4.47, 4.47, 4.92, 4.92, 4.92, 4.92, 4.92, 4.92, 4.47, 4.47, 4.47, 4.47, 4.92, 4.92, 4.47, 4.47, 4.02, 3.58, 3.58, 4.02, 4.92, 5.36, 5.36, 5.36, 5.36, 5.36, 5.36, 5.36, 5.81, 5.81, 5.81, 5.81, 5.81, 5.81, 5.81, 5.81, 5.81, 5.81, 6.26, 6.26, 6.26, 6.26, 6.26, 6.26, 6.26, 6.26, 6.71, 6.71, 7.15, 7.6, 7.6, 7.6, 7.6, 8.05, 8.05, 8.49, 8.49, 8.49, 8.49, 8.05, 8.05, 7.6, 7.6, 8.05, 8.49, 8.94, 8.94, 9.39, 9.83, 9.83, 10.28, 9.83, 9.83, 9.39, 9.83, 10.28, 10.28, 10.28, 10.28, 10.28, 10.28, 0.45, 0.89, 0.89, 0.89, 1.34, 1.34, 1.79, 1.79, 2.24, 2.24, 2.68, 3.13, 3.13, 3.58, 3.58, 4.02, 4.02, 4.47, 4.47, 4.92, 4.92, 4.92, 4.92, 5.36, 5.36, 4.92, 4.47, 4.47, 4.47, 4.47, 4.92, 4.92, 4.92, 4.47, 4.02, 3.58, 3.58, 3.58, 4.47, 4.92, 4.92, 4.92, 4.92, 5.36, 5.36, 5.36, 5.81, 5.81, 5.81, 6.26, 6.26, 6.26, 6.26, 6.26, 6.26, 6.26, 6.71, 6.71, 6.71, 6.71, 6.71, 6.71, 6.71, 7.15, 7.15, 7.6, 7.6, 7.6, 7.6, 7.6, 8.05, 8.05, 8.49, 8.49, 8.49, 8.49, 8.49, 8.05, 8.05, 8.05, 8.49, 8.94, 8.94, 9.39, 9.83, 9.83, 9.83, 9.83, 9.39, 9.39, 9.39, 9.39, 9.83, 10.28, 10.28, 9.83, 10.28, 10.28, 0.45, 0.89, 0.89, 1.34, 1.34, 1.34, 1.79, 1.79, 2.24, 2.68, 2.68, 3.13, 3.13, 3.58, 3.58, 4.02, 4.02, 4.47, 4.47, 4.92, 4.92, 4.92, 4.92, 5.36, 5.36, 4.92, 4.92, 4.47, 4.02, 4.02, 4.47, 4.92, 4.92, 4.92, 4.47, 4.02, 4.02, 3.58, 4.02, 4.47, 4.92, 4.92, 4.47, 4.47, 4.47, 4.92, 5.36, 5.81, 5.81, 6.26, 6.26, 6.26, 6.26, 6.26, 6.26, 6.71, 6.71, 6.71, 6.71, 6.71, 6.71, 6.71, 7.15, 7.15, 7.15, 7.15, 7.6, 7.6, 7.6, 8.05, 8.05, 7.6, 7.6, 7.6, 7.6, 8.05, 8.05, 8.05, 8.05, 8.49, 8.94, 8.94, 8.94, 9.39, 9.83, 9.83, 9.83, 9.39, 8.94, 8.94, 8.94, 9.39, 9.39, 9.83, 9.83, 9.83, 9.83, 9.83, 0.45, 0.89, 0.89, 1.34, 1.34, 1.79, 1.79, 2.24, 2.24, 2.68, 2.68, 3.13, 3.13, 3.58, 3.58, 4.02, 4.02, 4.02, 4.47, 4.47, 4.92, 4.92, 5.36, 5.36, 5.36, 5.36, 5.36, 4.92, 4.92, 4.47, 4.47, 4.47, 4.47, 4.47, 4.92, 4.47, 4.47, 4.02, 4.02, 4.02, 4.47, 4.92, 4.47, 4.47, 4.02, 4.02, 4.47, 4.92, 5.36, 5.81, 5.81, 5.81, 6.26, 6.26, 6.26, 6.71, 7.15, 7.15, 7.15, 7.15, 6.71, 7.15, 7.15, 7.15, 7.15, 7.15, 7.15, 7.15, 7.6, 7.6, 8.05, 7.6, 7.6, 7.15, 6.71, 6.71, 7.15, 8.05, 8.05, 8.05, 8.49, 8.94, 8.94, 9.39, 9.83, 9.83, 9.39, 8.94, 8.49, 8.49, 8.94, 8.94, 9.39, 9.39, 9.39, 9.39, 9.39, 9.83, 0.45, 0.89, 0.89, 1.34, 1.34, 1.79, 1.79, 2.24, 2.24, 2.68, 2.68, 3.13, 3.13, 3.13, 3.58, 3.58, 4.02, 4.02, 4.47, 4.47, 4.92, 4.92, 5.36, 5.36, 5.36, 5.81, 5.81, 5.81, 5.36, 4.92, 4.92, 4.92, 4.47, 4.47, 4.92, 4.92, 4.92, 4.92, 4.02, 4.02, 4.47, 4.47, 4.92, 4.92, 4.47, 4.47, 4.02, 4.02, 4.47, 4.92, 5.36, 5.81, 5.81, 6.26, 6.26, 6.71, 7.15, 7.15, 7.15, 7.15, 7.15, 7.15, 7.15, 7.15, 7.15, 6.71, 6.71, 7.15, 7.15, 7.6, 8.05, 8.05, 7.6, 7.15, 7.15, 6.71, 7.15, 7.15, 7.6, 8.05, 8.49, 8.94, 9.39, 9.39, 9.39, 8.94, 8.49, 8.49, 8.49, 8.49, 8.94, 8.94, 9.39, 8.94, 8.94, 9.39, 9.39, 9.39, 0.89, 0.89, 1.34, 1.34, 1.34, 1.79, 1.79, 2.24, 2.24, 2.68, 2.68, 3.13, 3.13, 3.13, 3.58, 3.58, 4.02, 4.02, 4.02, 4.47, 4.47, 4.92, 4.92, 5.36, 5.36, 5.36, 5.81, 5.81, 5.81, 5.36, 5.36, 5.36, 5.36, 4.92, 4.92, 4.92, 4.92, 4.92, 4.92, 4.47, 4.47, 4.92, 4.92, 4.92, 4.92, 4.92, 4.47, 4.47, 4.02, 4.02, 4.47, 5.36, 5.36, 5.81, 6.26, 6.26, 6.71, 6.71, 6.71, 7.15, 7.15, 7.15, 7.15, 7.15, 6.71, 6.71, 6.71, 7.15, 7.15, 8.05, 8.05, 8.49, 8.05, 8.05, 7.6, 7.15, 7.15, 7.15, 7.6, 8.05, 8.49, 8.94, 9.39, 9.39, 8.94, 8.49, 8.49, 8.49, 8.49, 8.49, 8.94, 8.94, 8.94, 8.94, 8.94, 8.94, 9.39, 9.39, 0.89, 0.89, 1.34, 1.34, 1.79, 1.79, 2.24, 2.24, 2.24, 2.68, 2.68, 3.13, 3.13, 3.58, 3.58, 3.58, 4.02, 4.02, 4.02, 4.47, 4.47, 4.47, 4.92, 4.92, 5.36, 5.36, 5.81, 5.81, 5.81, 5.81, 5.81, 5.81, 5.81, 5.81, 5.36, 5.36, 4.92, 4.92, 4.92, 4.92, 4.92, 4.92, 5.36, 5.36, 5.36, 5.36, 5.36, 5.36, 4.92, 4.47, 4.47, 4.92, 5.36, 5.81, 5.81, 6.26, 6.71, 6.71, 7.15, 7.15, 7.6, 7.6, 7.6, 7.15, 7.15, 7.15, 7.15, 7.15, 7.6, 8.05, 8.94, 8.94, 8.94, 8.49, 8.05, 7.6, 7.6, 7.6, 8.05, 8.49, 8.94, 8.94, 8.94, 8.94, 8.49, 8.49, 8.49, 8.49, 8.49, 8.94, 8.94, 8.94, 8.94, 8.94, 8.94, 8.94, 8.94, 9.39, 0.89, 1.34, 1.34, 1.34, 1.79, 1.79, 2.24, 2.24, 2.68, 2.68, 2.68, 3.13, 3.13, 3.58, 3.58, 3.58, 4.02, 4.02, 4.02, 4.47, 4.47, 4.47, 4.92, 4.92, 5.36, 5.36, 5.36, 5.36, 5.81, 5.81, 5.81, 5.81, 6.26, 6.26, 5.81, 5.81, 5.36, 5.36, 5.36, 5.36, 5.36, 5.36, 5.36, 5.36, 5.81, 5.81, 5.81, 5.81, 5.81, 5.36, 4.92, 4.92, 4.92, 5.36, 5.36, 5.81, 5.81, 6.71, 7.15, 7.6, 8.05, 7.6, 7.6, 7.6, 7.6, 7.6, 8.05, 8.05, 8.05, 8.49, 9.39, 9.83, 9.83, 9.39, 8.94, 8.49, 8.05, 8.49, 8.94, 8.94, 8.94, 8.94, 8.49, 8.49, 8.49, 8.49, 8.49, 8.49, 8.94, 8.94, 9.39, 9.39, 9.39, 9.39, 9.39, 9.39, 9.39, 9.39, 0.89, 1.34, 1.34, 1.79, 1.79, 2.24, 2.24, 2.24, 2.68, 2.68, 2.68, 3.13, 3.13, 3.13, 3.58, 3.58, 4.02, 4.02, 4.02, 4.47, 4.47, 4.47, 4.92, 4.92, 4.92, 5.36, 5.36, 5.36, 5.81, 5.81, 5.81, 5.81, 5.81, 6.26, 6.26, 6.26, 6.26, 5.81, 5.81, 5.81, 5.81, 5.36, 5.81, 5.81, 5.81, 6.26, 6.26, 6.26, 6.26, 5.81, 5.81, 5.36, 5.36, 5.36, 4.92, 4.92, 4.47, 4.92, 5.81, 6.71, 6.71, 6.71, 6.71, 7.15, 7.6, 8.05, 8.05, 8.05, 8.05, 8.94, 9.83, 10.28, 10.73, 10.28, 9.83, 9.39, 9.39, 9.39, 9.39, 9.39, 8.94, 8.94, 8.94, 8.49, 8.49, 8.94, 8.94, 8.94, 9.39, 9.39, 9.83, 9.83, 9.83, 9.83, 9.39, 9.39, 9.39, 9.39, 1.34, 1.34, 1.34, 1.79, 1.79, 2.24, 2.24, 2.24, 2.68, 2.68, 2.68, 3.13, 3.13, 3.13, 3.58, 3.58, 4.02, 4.02, 4.02, 4.47, 4.47, 4.47, 4.47, 4.92, 4.92, 4.92, 5.36, 5.36, 5.36, 5.81, 5.81, 5.81, 5.81, 5.81, 6.26, 6.26, 6.26, 6.26, 6.26, 6.26, 5.81, 5.81, 5.81, 6.26, 6.26, 6.26, 6.26, 6.26, 6.26, 6.26, 6.26, 6.26, 6.26, 6.26, 5.81, 5.36, 4.92, 4.02, 3.58, 4.47, 4.92, 5.36, 5.81, 5.81, 6.26, 7.15, 7.6, 7.6, 7.6, 7.6, 8.49, 9.39, 9.83, 9.83, 9.83, 9.83, 10.28, 9.83, 9.39, 9.39, 9.39, 8.94, 9.39, 9.39, 8.94, 8.94, 9.39, 9.39, 9.39, 9.83, 10.28, 10.28, 10.28, 9.83, 9.83, 9.83, 9.83, 9.39, 1.34, 1.34, 1.79, 1.79, 1.79, 2.24, 2.24, 2.68, 2.68, 2.68, 3.13, 3.13, 3.13, 3.13, 3.58, 3.58, 3.58, 4.02, 4.02, 4.47, 4.47, 4.47, 4.47, 4.92, 4.92, 4.92, 4.92, 4.92, 5.36, 5.36, 5.36, 5.81, 5.81, 5.81, 5.81, 6.26, 6.26, 6.26, 6.26, 6.26, 6.71, 6.26, 6.26, 6.26, 6.71, 6.71, 6.71, 6.71, 6.71, 6.71, 6.71, 7.15, 7.15, 7.15, 7.15, 6.71, 6.71, 5.81, 4.47, 4.02, 4.47, 4.92, 4.92, 5.36, 5.81, 6.26, 6.71, 6.71, 6.26, 6.26, 5.81, 6.71, 7.15, 7.6, 8.05, 9.83, 10.28, 9.83, 9.39, 8.94, 8.94, 9.39, 9.39, 9.39, 8.94, 8.94, 8.94, 9.39, 9.83, 9.83, 10.28, 10.28, 10.28, 9.83, 9.83, 9.83, 9.83, 9.39, 1.34, 1.34, 1.79, 1.79, 1.79, 2.24, 2.24, 2.68, 2.68, 2.68, 3.13, 3.13, 3.13, 3.13, 3.58, 3.58, 3.58, 4.02, 4.02, 4.02, 4.47, 4.47, 4.47, 4.47, 4.92, 4.92, 4.92, 4.92, 4.92, 5.36, 5.36, 5.36, 5.81, 5.81, 5.81, 6.26, 6.26, 6.26, 6.71, 6.71, 6.71, 6.71, 6.71, 6.71, 6.71, 6.71, 7.15, 7.15, 7.15, 7.15, 7.15, 7.15, 7.6, 7.6, 7.6, 7.6, 7.6, 7.15, 6.26, 5.36, 5.36, 5.81, 6.26, 6.26, 6.71, 6.71, 6.71, 6.71, 6.26, 5.81, 4.92, 4.92, 4.92, 4.92, 6.26, 8.49, 9.39, 9.39, 8.94, 8.94, 8.94, 8.94, 8.94, 8.94, 9.39, 8.94, 8.94, 8.94, 9.39, 9.39, 9.83, 9.83, 9.83, 9.83, 9.83, 9.83, 9.83, 9.83, 1.34, 1.34, 1.79, 1.79, 2.24, 2.24, 2.24, 2.68, 2.68, 2.68, 3.13, 3.13, 3.13, 3.58, 3.58, 3.58, 3.58, 4.02, 4.02, 4.02, 4.02, 4.47, 4.47, 4.47, 4.92, 4.92, 4.92, 4.92, 4.92, 5.36, 5.36, 5.36, 5.81, 5.81, 5.81, 6.26, 6.26, 6.26, 6.71, 6.71, 6.71, 6.71, 6.71, 6.71, 6.71, 6.71, 7.15, 7.15, 7.6, 7.6, 7.6, 7.6, 7.6, 7.6, 7.6, 8.05, 8.05, 8.05, 8.05, 7.15, 7.15, 7.15, 7.6, 7.6, 7.6, 7.6, 7.6, 7.6, 6.71, 5.81, 4.47, 4.47, 4.47, 3.58, 4.47, 6.26, 7.6, 8.05, 8.05, 8.49, 8.49, 8.49, 8.94, 8.94, 8.94, 8.94, 8.94, 8.94, 8.94, 8.94, 9.39, 9.39, 9.39, 9.39, 9.39, 9.83, 9.83, 9.83, 1.34, 1.34, 1.79, 1.79, 2.24, 2.24, 2.24, 2.68, 2.68, 2.68, 3.13, 3.13, 3.13, 3.58, 3.58, 3.58, 3.58, 4.02, 4.02, 4.02, 4.02, 4.47, 4.47, 4.47, 4.47, 4.92, 4.92, 4.92, 4.92, 5.36, 5.36, 5.36, 5.81, 5.81, 5.81, 5.81, 6.26, 6.26, 6.26, 6.71, 6.71, 6.71, 6.71, 6.71, 6.71, 7.15, 7.15, 7.15, 7.15, 7.6, 7.6, 7.6, 7.6, 7.6, 7.6, 8.05, 8.05, 8.49, 8.49, 8.49, 8.05, 7.6, 8.05, 8.05, 8.49, 8.49, 8.49, 8.05, 7.6, 6.71, 5.36, 5.36, 4.92, 4.02, 4.47, 4.92, 5.81, 6.26, 7.15, 7.6, 7.6, 8.05, 8.49, 8.49, 8.94, 8.94, 8.94, 8.94, 8.94, 8.94, 8.94, 9.39, 9.39, 9.39, 9.39, 9.39, 9.83, 9.83, 1.34, 1.34, 1.79, 1.79, 2.24, 2.24, 2.24, 2.68, 2.68, 2.68, 3.13, 3.13, 3.13, 3.58, 3.58, 3.58, 3.58, 4.02, 4.02, 4.02, 4.02, 4.47, 4.47, 4.47, 4.47, 4.47, 4.92, 4.92, 4.92, 5.36, 5.36, 5.36, 5.81, 5.81, 5.81, 5.81, 6.26, 6.26, 6.26, 6.26, 6.71, 6.71, 6.71, 7.15, 7.15, 7.15, 7.15, 7.15, 7.15, 7.15, 7.6, 7.6, 7.6, 7.6, 8.05, 8.05, 8.05, 8.49, 8.49, 8.49, 8.49, 8.05, 8.05, 8.05, 8.49, 8.49, 8.49, 8.49, 8.05, 7.6, 6.71, 6.26, 5.36, 5.36, 5.36, 5.36, 5.36, 5.36, 5.81, 6.26, 6.71, 7.15, 7.6, 8.05, 8.05, 8.05, 8.05, 8.49, 8.49, 8.94, 8.94, 8.94, 8.94, 9.39, 8.94, 9.39, 9.83, 9.83, 1.34, 1.34, 1.79, 1.79, 1.79, 2.24, 2.24, 2.68, 2.68, 2.68, 3.13, 3.13, 3.13, 3.58, 3.58, 3.58, 3.58, 4.02, 4.02, 4.02, 4.02, 4.02, 4.47, 4.47, 4.47, 4.47, 4.92, 4.92, 4.92, 5.36, 5.36, 5.36, 5.81, 5.81, 5.81, 5.81, 6.26, 6.26, 6.26, 6.26, 6.71, 6.71, 6.71, 6.71, 6.71, 6.71, 6.71, 6.71, 7.15, 7.15, 7.15, 7.15, 7.6, 7.6, 7.6, 8.05, 8.05, 8.05, 8.05, 8.05, 8.05, 8.05, 8.05, 8.05, 8.05, 8.05, 8.05, 8.05, 8.05, 8.05, 8.05, 7.15, 6.26, 6.26, 6.26, 5.81, 5.36, 5.36, 5.81, 5.81, 6.71, 6.71, 6.71, 7.15, 7.15, 7.15, 7.6, 8.05, 8.49, 8.94, 8.49, 8.49, 8.49, 8.94, 8.94, 9.39, 9.39, 9.39, 1.34, 1.34, 1.79, 1.79, 1.79, 2.24, 2.24, 2.24, 2.68, 2.68, 2.68, 3.13, 3.13, 3.13, 3.58, 3.58, 3.58, 4.02, 4.02, 4.02, 4.02, 4.02, 4.02, 4.47, 4.47, 4.47, 4.92, 4.92, 5.36, 5.36, 5.36, 5.36, 5.81, 5.81, 5.81, 5.81, 6.26, 6.26, 6.26, 6.26, 6.26, 6.71, 6.71, 6.71, 6.71, 6.71, 6.71, 6.71, 7.15, 7.15, 7.15, 7.15, 7.6, 7.6, 7.6, 7.6, 7.6, 8.05, 8.05, 8.05, 8.05, 8.05, 8.05, 7.6, 7.6, 7.6, 7.6, 7.6, 8.05, 8.05, 8.05, 8.05, 7.6, 7.15, 6.71, 6.26, 6.26, 6.71, 6.71, 6.71, 6.71, 6.71, 6.71, 6.71, 6.71, 7.15, 7.6, 8.05, 8.49, 8.94, 8.49, 8.49, 8.05, 8.49, 8.94, 8.94, 9.39, 9.39, 1.34, 1.34, 1.34, 1.79, 1.79, 1.79, 2.24, 2.24, 2.68, 2.68, 2.68, 3.13, 3.13, 3.13, 3.58, 3.58, 3.58, 4.02, 4.02, 4.02, 4.02, 4.02, 4.02, 4.47, 4.47, 4.47, 4.92, 4.92, 5.36, 5.36, 5.36, 5.36, 5.81, 5.81, 5.81, 5.81, 6.26, 6.26, 6.26, 6.26, 6.26, 6.26, 6.26, 6.26, 6.26, 6.71, 6.71, 6.71, 6.71, 7.15, 7.15, 7.15, 7.6, 7.6, 7.6, 7.6, 7.6, 8.05, 8.05, 8.05, 7.6, 7.6, 7.6, 7.6, 7.6, 7.15, 7.15, 7.6, 7.6, 8.05, 8.49, 8.05, 8.05, 8.49, 7.15, 6.71, 7.6, 8.05, 7.6, 7.6, 7.6, 7.15, 7.15, 7.15, 7.15, 7.6, 7.6, 8.05, 8.05, 8.94, 8.49, 8.49, 8.49, 8.49, 8.94, 9.39, 9.39, 9.39, 1.34, 1.34, 1.34, 1.79, 1.79, 1.79, 2.24, 2.24, 2.24, 2.68, 2.68, 2.68, 3.13, 3.13, 3.58, 3.58, 3.58, 3.58, 4.02, 4.02, 4.02, 4.02, 4.02, 4.02, 4.47, 4.47, 4.47, 4.92, 4.92, 5.36, 5.36, 5.36, 5.81, 5.81, 5.81, 5.81, 6.26, 6.26, 6.26, 6.26, 6.26, 6.26, 6.26, 6.26, 6.26, 6.26, 6.71, 6.71, 6.71, 7.15, 7.15, 7.15, 7.6, 7.6, 7.6, 7.6, 7.6, 7.6, 7.6, 7.6, 7.6, 7.6, 7.15, 7.15, 7.15, 7.15, 7.15, 7.6, 7.6, 8.05, 8.05, 7.6, 7.6, 8.05, 7.6, 8.49, 8.94, 8.94, 8.94, 8.49, 8.05, 7.6, 7.6, 7.6, 7.6, 8.05, 8.05, 8.05, 8.05, 8.49, 8.49, 8.49, 8.49, 8.94, 9.39, 9.39, 9.39, 9.39, 0.89, 0.89, 1.34, 1.34, 1.79, 1.79, 1.79, 2.24, 2.24, 2.68, 2.68, 2.68, 3.13, 3.13, 3.13, 3.58, 3.58, 3.58, 4.02, 4.02, 4.02, 4.02, 4.02, 4.02, 4.47, 4.47, 4.47, 4.92, 4.92, 5.36, 5.36, 5.36, 5.81, 5.81, 5.81, 5.81, 6.26, 6.26, 6.26, 6.26, 6.26, 6.26, 6.26, 6.26, 6.26, 6.26, 6.71, 6.71, 6.71, 7.15, 7.15, 7.15, 7.15, 7.15, 7.6, 7.6, 7.6, 7.15, 7.15, 7.15, 7.6, 7.6, 7.15, 7.15, 7.15, 7.15, 7.15, 7.6, 7.6, 8.05, 8.49, 8.05, 6.26, 7.15, 8.49, 9.39, 9.83, 10.28, 10.28, 9.39, 8.94, 8.49, 8.05, 8.05, 8.05, 8.05, 8.49, 8.05, 8.05, 8.05, 8.05, 8.94, 9.39, 9.39, 9.39, 9.39, 9.39, 9.39, 0.89, 0.89, 1.34, 1.34, 1.79, 1.79, 1.79, 2.24, 2.24, 2.24, 2.68, 2.68, 2.68, 3.13, 3.13, 3.58, 3.58, 3.58, 3.58, 4.02, 4.02, 4.02, 4.02, 4.02, 4.47, 4.47, 4.92, 4.92, 4.92, 5.36, 5.36, 5.36, 5.36, 5.81, 5.81, 5.81, 5.81, 5.81, 5.81, 5.81, 5.81, 5.81, 5.81, 6.26, 6.26, 6.26, 6.71, 6.71, 6.71, 7.15, 7.15, 7.15, 7.15, 7.15, 7.15, 7.6, 7.6, 7.15, 7.15, 6.71, 7.15, 7.15, 7.15, 7.15, 7.15, 7.15, 7.15, 7.6, 7.6, 8.05, 8.49, 7.6, 5.81, 5.81, 8.05, 9.39, 10.28, 10.73, 10.73, 10.28, 9.83, 9.39, 8.94, 8.94, 8.94, 8.49, 8.49, 8.49, 8.05, 8.05, 8.49, 8.94, 9.39, 9.83, 9.39, 9.83, 9.83, 9.83, 0.89, 0.89, 1.34, 1.34, 1.34, 1.79, 1.79, 2.24, 2.24, 2.24, 2.68, 2.68, 2.68, 3.13, 3.13, 3.13, 3.58, 3.58, 3.58, 3.58, 3.58, 4.02, 4.02, 4.02, 4.47, 4.47, 4.92, 4.92, 4.92, 5.36, 5.36, 5.36, 5.36, 5.36, 5.81, 5.81, 5.81, 5.81, 5.81, 5.81, 5.81, 5.81, 5.81, 6.26, 6.26, 6.26, 6.71, 6.71, 6.71, 6.71, 6.71, 6.71, 7.15, 7.15, 7.15, 7.15, 7.15, 7.15, 7.15, 6.71, 6.71, 6.71, 7.15, 7.15, 7.15, 7.15, 7.15, 7.6, 7.6, 8.49, 8.49, 8.49, 6.71, 4.92, 6.26, 8.49, 9.83, 10.28, 10.28, 10.28, 10.28, 9.83, 9.83, 9.39, 9.39, 9.39, 8.94, 8.94, 8.94, 8.94, 8.94, 8.94, 9.83, 9.83, 9.83, 9.83, 10.28, 10.28, 0.89, 0.89, 1.34, 1.34, 1.34, 1.79, 1.79, 2.24, 2.24, 2.24, 2.68, 2.68, 2.68, 2.68, 3.13, 3.13, 3.13, 3.58, 3.58, 3.58, 3.58, 3.58, 4.02, 4.02, 4.47, 4.47, 4.92, 4.92, 4.92, 5.36, 5.36, 5.36, 5.36, 5.36, 5.36, 5.36, 5.81, 5.81, 5.81, 5.81, 5.81, 5.81, 5.81, 6.26, 6.26, 6.26, 6.71, 6.71, 6.71, 6.71, 6.71, 6.71, 6.71, 7.15, 7.15, 7.15, 7.15, 7.15, 7.15, 7.15, 6.71, 6.71, 6.71, 7.15, 7.15, 7.15, 7.15, 7.15, 7.6, 8.05, 8.05, 8.49, 7.6, 5.81, 5.36, 6.71, 8.49, 8.94, 9.39, 9.83, 9.83, 10.28, 10.28, 9.83, 9.83, 9.39, 8.94, 8.94, 9.39, 9.39, 9.39, 8.94, 9.39, 9.83, 9.83, 10.28, 10.28, 10.28, 0.89, 0.89, 1.34, 1.34, 1.34, 1.34, 1.79, 1.79, 2.24, 2.24, 2.24, 2.68, 2.68, 2.68, 3.13, 3.13, 3.13, 3.58, 3.58, 3.58, 3.58, 3.58, 4.02, 4.02, 4.47, 4.47, 4.92, 4.92, 4.92, 4.92, 4.92, 4.92, 4.92, 4.92, 5.36, 5.36, 5.36, 5.36, 5.36, 5.81, 5.81, 5.81, 5.81, 6.26, 6.26, 6.26, 6.26, 6.71, 6.71, 6.71, 6.71, 6.71, 6.71, 7.15, 7.15, 7.15, 7.15, 7.15, 7.15, 7.15, 7.15, 7.15, 6.71, 7.15, 7.15, 6.71, 7.15, 7.15, 7.6, 7.6, 7.6, 8.05, 8.05, 7.15, 5.81, 5.81, 6.26, 7.6, 8.49, 8.94, 9.39, 9.83, 10.28, 10.28, 9.83, 9.39, 9.39, 9.39, 9.83, 9.83, 9.83, 9.39, 8.94, 9.39, 9.83, 9.83, 10.28, 10.28, 0.89, 0.89, 1.34, 1.34, 1.34, 1.34, 1.79, 1.79, 1.79, 2.24, 2.24, 2.68, 2.68, 2.68, 2.68, 3.13, 3.13, 3.13, 3.13, 3.58, 3.58, 3.58, 4.02, 4.02, 4.47, 4.47, 4.47, 4.47, 4.47, 4.47, 4.92, 4.92, 4.92, 4.92, 4.92, 5.36, 5.36, 5.36, 5.36, 5.81, 5.81, 5.81, 5.81, 5.81, 5.81, 6.26, 6.26, 6.26, 6.26, 6.71, 6.71, 6.71, 7.15, 7.15, 7.15, 7.15, 7.15, 7.15, 7.15, 7.6, 7.6, 7.15, 7.15, 7.15, 7.15, 7.15, 7.15, 7.6, 7.6, 7.6, 7.6, 7.6, 8.05, 8.05, 7.6, 6.71, 5.81, 5.81, 7.15, 8.49, 8.94, 9.39, 9.83, 10.28, 10.28, 10.28, 10.28, 10.28, 10.28, 10.28, 10.28, 9.83, 8.94, 8.94, 9.39, 9.83, 10.28, 10.28, 0.89, 0.89, 0.89, 1.34, 1.34, 1.34, 1.79, 1.79, 1.79, 2.24, 2.24, 2.68, 2.68, 2.68, 2.68, 3.13, 3.13, 3.13, 3.13, 3.13, 3.58, 3.58, 4.02, 4.02, 4.02, 4.02, 4.02, 4.47, 4.47, 4.47, 4.47, 4.47, 4.92, 4.92, 4.92, 4.92, 5.36, 5.36, 5.36, 5.36, 5.36, 5.81, 5.81, 5.81, 5.81, 5.81, 6.26, 6.26, 6.26, 6.26, 6.71, 6.71, 6.71, 6.71, 6.71, 6.71, 7.15, 7.15, 7.15, 7.15, 7.6, 7.15, 7.15, 7.15, 7.15, 7.15, 7.15, 7.6, 7.6, 7.6, 7.6, 7.15, 7.6, 8.05, 8.94, 8.05, 6.71, 5.81, 6.26, 7.6, 8.94, 9.39, 9.39, 9.83, 10.28, 10.73, 10.73, 10.73, 10.73, 10.73, 10.28, 10.28, 9.83, 8.94, 8.94, 9.39, 9.83, 9.83, 0.89, 0.89, 0.89, 1.34, 1.34, 1.34, 1.79, 1.79, 1.79, 2.24, 2.24, 2.24, 2.68, 2.68, 2.68, 2.68, 3.13, 3.13, 3.13, 3.13, 3.58, 3.58, 3.58, 4.02, 4.02, 4.02, 4.02, 4.02, 4.02, 4.47, 4.47, 4.47, 4.47, 4.92, 4.92, 4.92, 4.92, 5.36, 5.36, 5.36, 5.36, 5.36, 5.81, 5.81, 5.81, 5.81, 6.26, 6.26, 6.26, 6.26, 6.26, 6.71, 6.71, 6.71, 6.71, 6.71, 6.71, 7.15, 7.15, 7.15, 7.15, 7.15, 7.15, 7.15, 7.6, 7.6, 7.6, 7.15, 7.15, 7.6, 7.6, 7.6, 7.15, 7.6, 8.94, 9.39, 8.05, 7.15, 6.71, 7.15, 8.49, 8.94, 9.39, 9.83, 10.28, 10.73, 11.18, 11.62, 11.62, 11.18, 10.73, 10.73, 10.28, 9.39, 9.39, 9.83, 9.83, 9.83, 0.89, 0.89, 0.89, 1.34, 1.34, 1.34, 1.79, 1.79, 1.79, 2.24, 2.24, 2.24, 2.68, 2.68, 2.68, 2.68, 3.13, 3.13, 3.13, 3.13, 3.58, 3.58, 3.58, 3.58, 4.02, 4.02, 4.02, 4.02, 4.02, 4.02, 4.47, 4.47, 4.47, 4.47, 4.47, 4.92, 4.92, 4.92, 5.36, 5.36, 5.36, 5.36, 5.36, 5.81, 5.81, 5.81, 6.26, 6.26, 6.26, 6.26, 6.26, 6.26, 6.26, 6.71, 6.71, 6.71, 6.71, 6.71, 7.15, 7.15, 7.15, 7.6, 7.6, 7.6, 8.05, 8.05, 7.6, 7.15, 6.71, 7.15, 7.6, 8.05, 7.6, 7.15, 8.49, 8.94, 8.49, 8.05, 8.05, 8.05, 8.49, 8.94, 9.39, 9.83, 10.28, 10.73, 11.18, 11.62, 11.62, 11.18, 11.18, 10.73, 10.73, 10.28, 9.83, 9.83, 10.28, 10.28, 0.89, 0.89, 0.89, 1.34, 1.34, 1.34, 1.79, 1.79, 1.79, 2.24, 2.24, 2.24, 2.24, 2.68, 2.68, 2.68, 3.13, 3.13, 3.13, 3.58, 3.58, 3.58, 3.58, 3.58, 4.02, 4.02, 4.02, 4.02, 4.02, 4.02, 4.02, 4.47, 4.47, 4.47, 4.47, 4.47, 4.92, 4.92, 4.92, 4.92, 5.36, 5.36, 5.36, 5.81, 5.81, 5.81, 6.26, 6.26, 6.26, 6.26, 6.26, 6.26, 6.26, 6.26, 6.26, 6.71, 6.71, 6.71, 7.15, 7.15, 7.15, 7.15, 7.6, 7.6, 8.05, 8.05, 8.05, 7.6, 7.15, 7.15, 7.15, 8.05, 8.05, 7.6, 7.6, 8.05, 8.49, 8.94, 8.94, 9.39, 9.39, 9.39, 9.39, 9.83, 10.28, 10.28, 10.73, 11.18, 11.18, 11.18, 10.73, 10.73, 10.73, 10.73, 10.28, 10.28, 10.73, 10.73, 0.89, 0.89, 0.89, 1.34, 1.34, 1.34, 1.79, 1.79, 1.79, 2.24, 2.24, 2.24, 2.24, 2.68, 2.68, 2.68, 3.13, 3.13, 3.13, 3.58, 3.58, 3.58, 3.58, 3.58, 3.58, 4.02, 4.02, 4.02, 4.02, 4.02, 4.02, 4.02, 4.47, 4.47, 4.47, 4.47, 4.47, 4.92, 4.92, 4.92, 4.92, 5.36, 5.36, 5.36, 5.81, 5.81, 5.81, 6.26, 6.26, 6.26, 6.26, 6.26, 6.26, 6.26, 6.71, 6.71, 6.71, 6.71, 6.71, 7.15, 7.15, 7.6, 7.6, 7.6, 7.6, 8.05, 8.05, 8.05, 8.05, 7.6, 7.6, 7.6, 8.05, 8.05, 7.6, 6.71, 7.6, 8.94, 9.39, 9.39, 9.39, 9.83, 9.83, 10.28, 10.28, 10.73, 10.73, 10.73, 10.73, 10.28, 10.28, 10.73, 10.73, 11.18, 10.73, 10.73, 10.73, 10.73, 0.89, 0.89, 0.89, 1.34, 1.34, 1.34, 1.34, 1.79, 1.79, 1.79, 2.24, 2.24, 2.24, 2.68, 2.68, 2.68, 2.68, 3.13, 3.13, 3.58, 3.58, 3.58, 3.58, 3.58, 3.58, 4.02, 4.02, 4.02, 4.02, 4.02, 4.02, 4.02, 4.47, 4.47, 4.47, 4.47, 4.47, 4.92, 4.92, 4.92, 4.92, 5.36, 5.36, 5.36, 5.81, 5.81, 5.81, 5.81, 6.26, 6.26, 6.26, 6.26, 6.26, 6.71, 6.71, 6.71, 6.71, 6.71, 6.71, 7.15, 7.15, 7.6, 7.6, 7.6, 7.6, 8.05, 8.05, 8.05, 8.05, 8.05, 8.05, 7.6, 8.05, 8.49, 8.05, 7.15, 7.15, 8.05, 8.94, 9.39, 9.39, 9.39, 9.83, 10.28, 10.28, 10.73, 10.73, 10.73, 10.28, 10.28, 10.28, 10.73, 10.73, 11.18, 11.18, 10.73, 10.73, 10.73, 0.89, 0.89, 0.89, 0.89, 1.34, 1.34, 1.34, 1.79, 1.79, 1.79, 2.24, 2.24, 2.24, 2.24, 2.68, 2.68, 2.68, 3.13, 3.13, 3.13, 3.58, 3.58, 3.58, 3.58, 4.02, 4.02, 4.02, 4.02, 4.02, 4.02, 4.02, 4.02, 4.47, 4.47, 4.47, 4.47, 4.47, 4.92, 4.92, 4.92, 4.92, 5.36, 5.36, 5.36, 5.81, 5.81, 5.81, 5.81, 5.81, 6.26, 6.26, 6.26, 6.26, 6.71, 6.71, 6.71, 6.71, 7.15, 7.15, 7.15, 7.15, 7.6, 7.6, 7.6, 8.05, 8.05, 8.05, 8.05, 8.49, 8.49, 8.05, 8.05, 8.05, 8.49, 8.49, 7.6, 7.15, 7.6, 8.49, 8.94, 8.94, 9.39, 9.83, 10.28, 10.73, 10.73, 10.73, 10.73, 10.28, 10.28, 10.28, 10.73, 10.73, 11.18, 11.18, 11.18, 11.18, 11.18, 0.89, 0.89, 0.89, 0.89, 1.34, 1.34, 1.34, 1.79, 1.79, 1.79, 2.24, 2.24, 2.24, 2.24, 2.68, 2.68, 2.68, 3.13, 3.13, 3.13, 3.58, 3.58, 3.58, 3.58, 4.02, 4.02, 4.02, 4.02, 4.02, 4.02, 4.02, 4.47, 4.47, 4.47, 4.47, 4.47, 4.92, 4.92, 4.92, 4.92, 4.92, 5.36, 5.36, 5.36, 5.81, 5.81, 5.81, 5.81, 5.81, 6.26, 6.26, 6.26, 6.71, 6.71, 6.71, 7.15, 7.15, 7.15, 7.15, 7.6, 7.6, 7.6, 7.6, 8.05, 8.05, 8.05, 8.05, 8.49, 8.49, 8.49, 8.49, 8.49, 8.05, 8.05, 8.49, 8.49, 7.6, 7.6, 8.05, 8.49, 8.94, 8.94, 9.39, 10.28, 10.28, 10.73, 10.73, 10.73, 10.28, 10.28, 10.73, 10.73, 10.73, 11.18, 11.18, 11.18, 11.18, 11.18, 0.89, 0.89, 0.89, 0.89, 1.34, 1.34, 1.34, 1.79, 1.79, 1.79, 2.24, 2.24, 2.24, 2.24, 2.68, 2.68, 2.68, 3.13, 3.13, 3.13, 3.13, 3.58, 3.58, 3.58, 3.58, 4.02, 4.02, 4.02, 4.02, 4.02, 4.47, 4.47, 4.47, 4.47, 4.47, 4.47, 4.92, 4.92, 4.92, 4.92, 5.36, 5.36, 5.36, 5.36, 5.81, 5.81, 5.81, 5.81, 5.81, 6.26, 6.26, 6.26, 6.71, 6.71, 6.71, 7.15, 7.15, 7.15, 7.6, 7.6, 7.6, 8.05, 8.05, 8.05, 8.05, 8.05, 8.49, 8.49, 8.49, 8.94, 8.94, 8.94, 8.49, 8.05, 8.05, 8.05, 8.05, 8.05, 8.05, 8.05, 8.94, 8.94, 9.39, 9.83, 10.28, 10.28, 10.28, 10.28, 10.28, 10.73, 10.73, 10.73, 11.18, 11.18, 11.18, 11.18, 11.18, 11.18, 0.89, 0.89, 0.89, 0.89, 1.34, 1.34, 1.34, 1.79, 1.79, 1.79, 2.24, 2.24, 2.24, 2.68, 2.68, 2.68, 2.68, 3.13, 3.13, 3.13, 3.13, 3.58, 3.58, 3.58, 3.58, 4.02, 4.02, 4.02, 4.02, 4.02, 4.47, 4.47, 4.47, 4.47, 4.47, 4.92, 4.92, 4.92, 4.92, 4.92, 5.36, 5.36, 5.36, 5.36, 5.81, 5.81, 5.81, 5.81, 5.81, 6.26, 6.26, 6.26, 6.71, 6.71, 6.71, 7.15, 7.15, 7.15, 7.6, 7.6, 7.6, 8.05, 8.05, 8.05, 8.05, 8.49, 8.49, 8.49, 8.49, 8.94, 8.94, 9.39, 8.94, 8.49, 7.6, 7.6, 8.49, 8.94, 8.49, 8.49, 8.94, 9.39, 9.83, 9.83, 10.28, 10.28, 10.28, 10.28, 10.28, 10.73, 10.73, 10.73, 11.18, 11.18, 11.18, 11.18, 11.18, 11.18, 0.89, 0.89, 0.89, 1.34, 1.34, 1.34, 1.79, 1.79, 1.79, 1.79, 2.24, 2.24, 2.24, 2.68, 2.68, 2.68, 2.68, 2.68, 3.13, 3.13, 3.13, 3.13, 3.58, 3.58, 3.58, 3.58, 4.02, 4.02, 4.02, 4.47, 4.47, 4.47, 4.47, 4.47, 4.92, 4.92, 4.92, 4.92, 4.92, 5.36, 5.36, 5.36, 5.36, 5.81, 5.81, 5.81, 5.81, 6.26, 6.26, 6.26, 6.26, 6.26, 6.71, 6.71, 6.71, 7.15, 7.15, 7.6, 7.6, 7.6, 7.6, 8.05, 8.05, 8.49, 8.49, 8.49, 8.49, 8.94, 8.94, 8.94, 8.94, 9.39, 9.39, 9.39, 8.49, 6.71, 7.15, 8.49, 8.49, 8.49, 8.94, 9.39, 10.28, 10.28, 10.28, 10.28, 10.28, 10.28, 10.28, 10.28, 10.73, 10.73, 11.18, 11.18, 11.18, 11.18, 11.18, 11.18, 0.89, 0.89, 0.89, 1.34, 1.34, 1.34, 1.79, 1.79, 1.79, 2.24, 2.24, 2.24, 2.68, 2.68, 2.68, 2.68, 2.68, 2.68, 3.13, 3.13, 3.13, 3.13, 3.58, 3.58, 3.58, 3.58, 4.02, 4.02, 4.02, 4.47, 4.47, 4.47, 4.47, 4.47, 4.92, 4.92, 4.92, 4.92, 5.36, 5.36, 5.36, 5.36, 5.81, 5.81, 5.81, 5.81, 6.26, 6.26, 6.26, 6.26, 6.71, 6.71, 6.71, 6.71, 7.15, 7.15, 7.15, 7.6, 7.6, 7.6, 7.6, 8.05, 8.05, 8.49, 8.49, 8.49, 8.94, 8.94, 8.94, 8.94, 9.39, 9.39, 9.83, 9.83, 9.39, 8.05, 6.26, 6.71, 8.05, 8.49, 8.49, 9.39, 10.28, 10.73, 10.73, 10.73, 10.28, 10.28, 10.28, 10.28, 10.28, 10.73, 10.73, 10.73, 11.18, 11.18, 11.18, 11.18, 0.89, 0.89, 1.34, 1.34, 1.34, 1.79, 1.79, 1.79, 2.24, 2.24, 2.24, 2.24, 2.68, 2.68, 2.68, 2.68, 2.68, 3.13, 3.13, 3.13, 3.13, 3.13, 3.58, 3.58, 3.58, 4.02, 4.02, 4.02, 4.02, 4.47, 4.47, 4.47, 4.47, 4.92, 4.92, 4.92, 4.92, 5.36, 5.36, 5.36, 5.36, 5.81, 5.81, 5.81, 5.81, 6.26, 6.26, 6.26, 6.26, 6.71, 6.71, 6.71, 6.71, 6.71, 7.15, 7.15, 7.15, 7.6, 7.6, 7.6, 7.6, 8.05, 8.05, 8.49, 8.49, 8.49, 8.94, 8.94, 8.94, 9.39, 9.39, 9.39, 9.83, 9.83, 9.83, 9.39, 7.6, 5.81, 6.26, 7.6, 8.49, 8.94, 9.39, 10.28, 10.73, 10.73, 10.73, 10.28, 10.28, 10.28, 10.28, 10.73, 10.73, 10.73, 10.73, 11.18, 11.18, 11.18, 1.34, 1.34, 1.34, 1.34, 1.79, 1.79, 1.79, 2.24, 2.24, 2.24, 2.24, 2.68, 2.68, 2.68, 2.68, 2.68, 3.13, 3.13, 3.13, 3.13, 3.13, 3.13, 3.58, 3.58, 3.58, 4.02, 4.02, 4.02, 4.02, 4.47, 4.47, 4.47, 4.47, 4.92, 4.92, 4.92, 5.36, 5.36, 5.36, 5.36, 5.81, 5.81, 5.81, 5.81, 6.26, 6.26, 6.26, 6.26, 6.71, 6.71, 6.71, 6.71, 7.15, 7.15, 7.15, 7.15, 7.15, 7.6, 7.6, 7.6, 7.6, 8.05, 8.05, 8.49, 8.49, 8.49, 8.49, 8.94, 8.94, 9.39, 9.39, 9.39, 9.83, 9.83, 9.83, 9.83, 8.94, 7.15, 5.81, 6.26, 7.6, 8.49, 8.94, 9.39, 9.83, 10.28, 10.28, 10.28, 10.28, 10.28, 10.28, 10.28, 10.28, 10.73, 10.73, 10.73, 10.73, 10.73, 1.34, 1.34, 1.34, 1.34, 1.79, 1.79, 2.24, 2.24, 2.24, 2.24, 2.68, 2.68, 2.68, 2.68, 2.68, 2.68, 3.13, 3.13, 3.13, 3.13, 3.13, 3.58, 3.58, 3.58, 4.02, 4.02, 4.02, 4.02, 4.47, 4.47, 4.47, 4.47, 4.92, 4.92, 4.92, 4.92, 5.36, 5.36, 5.36, 5.81, 5.81, 5.81, 5.81, 6.26, 6.26, 6.26, 6.26, 6.71, 6.71, 6.71, 6.71, 7.15, 7.15, 7.15, 7.15, 7.6, 7.6, 7.6, 7.6, 7.6, 8.05, 8.05, 8.05, 8.05, 8.49, 8.49, 8.49, 8.94, 8.94, 9.39, 9.39, 9.39, 9.83, 9.83, 9.83, 9.83, 9.39, 8.49, 7.15, 6.71, 6.71, 7.6, 8.05, 8.49, 8.94, 9.39, 9.83, 9.83, 9.83, 10.28, 10.28, 10.28, 10.28, 10.28, 10.28, 10.73, 10.73, 10.73, 1.34, 1.34, 1.34, 1.79, 1.79, 2.24, 2.24, 2.24, 2.24, 2.68, 2.68, 2.68, 2.68, 2.68, 2.68, 2.68, 2.68, 3.13, 3.13, 3.13, 3.58, 3.58, 3.58, 3.58, 4.02, 4.02, 4.02, 4.02, 4.47, 4.47, 4.47, 4.92, 4.92, 4.92, 4.92, 5.36, 5.36, 5.36, 5.81, 5.81, 5.81, 5.81, 6.26, 6.26, 6.26, 6.26, 6.71, 6.71, 6.71, 6.71, 6.71, 7.15, 7.15, 7.15, 7.15, 7.6, 7.6, 7.6, 7.6, 8.05, 8.05, 8.05, 8.05, 8.05, 8.49, 8.49, 8.49, 8.94, 8.94, 9.39, 9.39, 9.39, 9.39, 9.83, 9.83, 9.83, 9.83, 8.94, 8.05, 7.6, 7.15, 7.15, 7.6, 8.05, 8.49, 8.94, 9.39, 9.39, 9.83, 9.83, 9.83, 9.83, 10.28, 10.28, 10.28, 10.28, 10.28, 10.28, 1.34, 1.34, 1.79, 1.79, 1.79, 2.24, 2.24, 2.24, 2.24, 2.68, 2.68, 2.68, 2.68, 2.68, 2.68, 2.68, 2.68, 3.13, 3.13, 3.13, 3.58, 3.58, 3.58, 4.02, 4.02, 4.02, 4.02, 4.02, 4.47, 4.47, 4.47, 4.92, 4.92, 4.92, 5.36, 5.36, 5.36, 5.81, 5.81, 5.81, 5.81, 6.26, 6.26, 6.26, 6.26, 6.71, 6.71, 6.71, 6.71, 6.71, 7.15, 7.15, 7.15, 7.15, 7.6, 7.6, 7.6, 7.6, 8.05, 8.05, 8.05, 8.05, 8.05, 8.05, 8.49, 8.49, 8.94, 8.94, 8.94, 8.94, 9.39, 9.39, 9.39, 9.83, 9.83, 9.83, 9.83, 9.39, 8.49, 8.05, 7.6, 7.15, 7.6, 8.05, 8.94, 8.94, 8.94, 9.39, 9.39, 9.83, 9.83, 9.83, 9.83, 9.83, 10.28, 10.28, 10.28, 10.28, 1.79, 1.79, 1.79, 1.79, 2.24, 2.24, 2.24, 2.24, 2.24, 2.68, 2.68, 2.68, 2.68, 2.68, 2.68, 2.68, 2.68, 3.13, 3.13, 3.13, 3.58, 3.58, 3.58, 4.02, 4.02, 4.02, 4.02, 4.47, 4.47, 4.47, 4.92, 4.92, 4.92, 5.36, 5.36, 5.36, 5.81, 5.81, 5.81, 5.81, 6.26, 6.26, 6.26, 6.26, 6.71, 6.71, 6.71, 6.71, 6.71, 7.15, 7.15, 7.15, 7.15, 7.15, 7.6, 7.6, 7.6, 8.05, 8.05, 8.05, 8.05, 8.05, 8.05, 8.49, 8.49, 8.49, 8.49, 8.94, 8.94, 9.39, 9.39, 9.39, 9.39, 9.39, 9.83, 9.83, 9.39, 9.39, 8.94, 8.05, 7.6, 7.6, 7.15, 8.05, 8.94, 9.39, 8.94, 8.94, 9.39, 9.83, 9.83, 9.83, 9.83, 9.83, 9.83, 10.28, 10.28, 10.28, 1.79, 1.79, 1.79, 1.79, 2.24, 2.24, 2.24, 2.24, 2.24, 2.68, 2.68, 2.68, 2.68, 2.68, 2.68, 2.68, 3.13, 3.13, 3.13, 3.58, 3.58, 3.58, 3.58, 4.02, 4.02, 4.02, 4.47, 4.47, 4.47, 4.92, 4.92, 4.92, 5.36, 5.36, 5.36, 5.36, 5.81, 5.81, 5.81, 5.81, 6.26, 6.26, 6.26, 6.26, 6.71, 6.71, 6.71, 6.71, 6.71, 7.15, 7.15, 7.15, 7.15, 7.6, 7.6, 7.6, 7.6, 8.05, 8.05, 8.05, 8.05, 8.05, 8.05, 8.49, 8.49, 8.49, 8.49, 8.49, 8.94, 9.39, 9.39, 9.39, 9.39, 9.39, 9.39, 9.39, 9.39, 9.39, 8.94, 8.49, 8.05, 7.6, 7.15, 7.15, 8.49, 8.94, 8.94, 9.39, 9.39, 9.39, 9.83, 9.83, 9.83, 9.83, 9.83, 9.83, 9.83, 9.83, 1.79, 1.79, 1.79, 1.79, 2.24, 2.24, 2.24, 2.24, 2.24, 2.68, 2.68, 2.68, 2.68, 2.68, 2.68, 2.68, 3.13, 3.13, 3.13, 3.58, 3.58, 3.58, 4.02, 4.02, 4.02, 4.02, 4.47, 4.47, 4.47, 4.92, 4.92, 4.92, 5.36, 5.36, 5.36, 5.81, 5.81, 5.81, 5.81, 6.26, 6.26, 6.26, 6.26, 6.26, 6.71, 6.71, 6.71, 6.71, 7.15, 7.15, 7.15, 7.15, 7.6, 7.6, 7.6, 7.6, 7.6, 8.05, 8.05, 8.05, 8.05, 8.05, 8.05, 8.05, 8.49, 8.49, 8.49, 8.49, 8.49, 8.94, 8.94, 9.39, 9.39, 9.83, 9.39, 9.39, 9.39, 9.39, 8.94, 8.49, 8.05, 7.6, 7.15, 7.15, 7.6, 8.49, 8.94, 8.94, 9.39, 9.39, 9.39, 9.39, 9.83, 9.83, 9.83, 9.83, 9.83, 9.83, 1.79, 1.79, 1.79, 1.79, 2.24, 2.24, 2.24, 2.24, 2.24, 2.24, 2.68, 2.68, 2.68, 2.68, 2.68, 3.13, 3.13, 3.13, 3.13, 3.58, 3.58, 3.58, 4.02, 4.02, 4.02, 4.47, 4.47, 4.47, 4.92, 4.92, 4.92, 5.36, 5.36, 5.36, 5.36, 5.81, 5.81, 5.81, 5.81, 6.26, 6.26, 6.26, 6.26, 6.71, 6.71, 6.71, 6.71, 6.71, 7.15, 7.15, 7.15, 7.15, 7.6, 7.6, 7.6, 7.6, 7.6, 7.6, 8.05, 8.05, 8.05, 8.05, 8.05, 8.05, 8.49, 8.49, 8.49, 8.49, 8.49, 8.49, 8.94, 8.94, 9.39, 9.39, 9.83, 9.39, 9.39, 9.39, 8.94, 8.94, 8.49, 7.6, 7.15, 7.15, 8.05, 8.49, 8.94, 8.94, 9.39, 9.39, 9.39, 9.39, 9.39, 9.83, 9.83, 9.83, 9.83, 9.83, 1.79, 1.79, 1.79, 1.79, 1.79, 2.24, 2.24, 2.24, 2.24, 2.24, 2.24, 2.68, 2.68, 2.68, 2.68, 3.13, 3.13, 3.13, 3.13, 3.58, 3.58, 3.58, 4.02, 4.02, 4.02, 4.47, 4.47, 4.47, 4.92, 4.92, 4.92, 5.36, 5.36, 5.36, 5.81, 5.81, 5.81, 5.81, 5.81, 6.26, 6.26, 6.26, 6.26, 6.71, 6.71, 6.71, 6.71, 6.71, 7.15, 7.15, 7.15, 7.15, 7.6, 7.6, 7.6, 7.6, 7.6, 7.6, 7.6, 8.05, 8.05, 8.05, 8.05, 8.05, 8.05, 8.49, 8.49, 8.49, 8.49, 8.49, 8.49, 8.49, 8.94, 8.94, 9.83, 9.83, 9.39, 9.39, 8.94, 8.94, 8.49, 8.05, 7.15, 7.6, 8.05, 8.49, 8.94, 8.94, 9.39, 9.39, 9.39, 9.39, 9.39, 9.83, 9.83, 9.83, 9.83, 9.83, 1.79, 1.79, 1.79, 1.79, 1.79, 2.24, 2.24, 2.24, 2.24, 2.24, 2.24, 2.68, 2.68, 2.68, 3.13, 3.13, 3.13, 3.13, 3.58, 3.58, 3.58, 3.58, 4.02, 4.02, 4.47, 4.47, 4.47, 4.47, 4.92, 4.92, 4.92, 5.36, 5.36, 5.36, 5.81, 5.81, 5.81, 5.81, 5.81, 6.26, 6.26, 6.26, 6.26, 6.71, 6.71, 6.71, 6.71, 7.15, 7.15, 7.15, 7.15, 7.15, 7.6, 7.6, 7.6, 7.6, 7.6, 7.6, 7.6, 7.6, 8.05, 8.05, 8.05, 8.05, 8.05, 8.05, 8.49, 8.49, 8.49, 8.49, 8.49, 8.49, 8.49, 8.94, 8.94, 9.39, 9.39, 9.39, 8.94, 8.94, 8.94, 8.49, 6.71, 7.15, 8.05, 8.49, 8.94, 8.94, 9.39, 9.39, 9.39, 9.39, 9.39, 9.39, 9.83, 9.83, 9.83, 9.83, 1.34, 1.34, 1.79, 1.79, 1.79, 1.79, 2.24, 2.24, 2.24, 2.24, 2.24, 2.68, 2.68, 3.13, 3.13, 3.13, 3.13, 3.13, 3.58, 3.58, 3.58, 4.02, 4.02, 4.02, 4.47, 4.47, 4.47, 4.92, 4.92, 4.92, 5.36, 5.36, 5.36, 5.36, 5.81, 5.81, 5.81, 5.81, 6.26, 6.26, 6.26, 6.26, 6.71, 6.71, 6.71, 6.71, 6.71, 7.15, 7.15, 7.15, 7.15, 7.15, 7.15, 7.6, 7.6, 7.6, 7.6, 7.6, 7.6, 7.6, 7.6, 8.05, 8.05, 8.05, 8.05, 8.05, 8.05, 8.49, 8.49, 8.49, 8.49, 8.49, 8.49, 8.49, 8.94, 8.94, 8.94, 8.94, 8.94, 8.94, 8.49, 8.49, 6.71, 6.26, 7.15, 8.49, 8.49, 8.94, 9.39, 9.83, 9.83, 9.83, 9.83, 9.83, 9.83, 9.83, 9.83, 9.83, 1.34, 1.34, 1.34, 1.79, 1.79, 1.79, 2.24, 2.24, 2.24, 2.24, 2.68, 2.68, 2.68, 3.13, 3.13, 3.13, 3.13, 3.13, 3.58, 3.58, 3.58, 4.02, 4.02, 4.47, 4.47, 4.47, 4.47, 4.92, 4.92, 4.92, 5.36, 5.36, 5.36, 5.36, 5.81, 5.81, 5.81, 5.81, 6.26, 6.26, 6.26, 6.26, 6.71, 6.71, 6.71, 6.71, 6.71, 7.15, 7.15, 7.15, 7.15, 7.15, 7.15, 7.15, 7.15, 7.6, 7.6, 7.6, 7.6, 7.6, 7.6, 7.6, 7.6, 8.05, 8.05, 8.05, 8.05, 8.05, 8.05, 8.49, 8.49, 8.49, 8.49, 8.49, 8.49, 8.94, 8.94, 8.94, 8.94, 8.94, 8.49, 8.05, 7.15, 6.26, 5.81, 7.15, 8.05, 8.49, 8.94, 9.39, 9.83, 10.28, 9.83, 9.83, 9.83, 9.83, 9.83, 9.83, 1.34, 1.34, 1.34, 1.79, 1.79, 1.79, 1.79, 2.24, 2.24, 2.24, 2.68, 2.68, 2.68, 3.13, 3.13, 3.13, 3.13, 3.58, 3.58, 3.58, 3.58, 4.02, 4.02, 4.47, 4.47, 4.47, 4.92, 4.92, 4.92, 4.92, 5.36, 5.36, 5.36, 5.81, 5.81, 5.81, 5.81, 6.26, 6.26, 6.26, 6.26, 6.26, 6.71, 6.71, 6.71, 6.71, 6.71, 6.71, 7.15, 7.15, 7.15, 7.15, 7.15, 7.15, 7.15, 7.15, 7.15, 7.6, 7.6, 7.6, 7.6, 7.6, 7.6, 7.6, 7.6, 8.05, 8.05, 8.05, 8.05, 8.05, 8.49, 8.49, 8.49, 8.49, 8.49, 8.49, 8.94, 8.94, 8.94, 8.49, 8.49, 8.05, 7.6, 6.26, 5.81, 6.26, 7.15, 8.05, 8.49, 8.94, 9.83, 9.83, 10.28, 10.28, 10.28, 9.83, 9.83, 9.83, 1.34, 1.34, 1.34, 1.34, 1.79, 1.79, 1.79, 2.24, 2.24, 2.24, 2.68, 2.68, 2.68, 3.13, 3.13, 3.13, 3.13, 3.58, 3.58, 3.58, 4.02, 4.02, 4.02, 4.47, 4.47, 4.47, 4.92, 4.92, 4.92, 5.36, 5.36, 5.36, 5.36, 5.81, 5.81, 5.81, 5.81, 6.26, 6.26, 6.26, 6.26, 6.26, 6.71, 6.71, 6.71, 6.71, 6.71, 6.71, 6.71, 6.71, 6.71, 7.15, 7.15, 7.15, 7.15, 7.15, 7.15, 7.15, 7.15, 7.15, 7.6, 7.6, 7.6, 7.6, 7.6, 7.6, 7.6, 8.05, 8.05, 8.05, 8.05, 8.49, 8.49, 8.49, 8.49, 8.49, 8.49, 8.49, 8.94, 8.49, 8.49, 8.05, 7.6, 6.71, 6.26, 6.26, 6.71, 7.6, 8.05, 8.49, 8.94, 9.39, 9.83, 9.83, 9.83, 9.83, 9.83, 9.83, 1.34, 1.34, 1.34, 1.34, 1.79, 1.79, 1.79, 2.24, 2.24, 2.24, 2.68, 2.68, 2.68, 3.13, 3.13, 3.13, 3.13, 3.58, 3.58, 3.58, 4.02, 4.02, 4.02, 4.47, 4.47, 4.92, 4.92, 4.92, 4.92, 5.36, 5.36, 5.36, 5.81, 5.81, 5.81, 5.81, 5.81, 6.26, 6.26, 6.26, 6.26, 6.26, 6.26, 6.71, 6.71, 6.71, 6.71, 6.71, 6.71, 6.71, 6.71, 6.71, 6.71, 7.15, 7.15, 7.15, 7.15, 7.15, 7.15, 7.15, 7.15, 7.15, 7.6, 7.6, 7.6, 7.6, 7.6, 7.6, 8.05, 8.05, 8.05, 8.05, 8.05, 8.49, 8.49, 8.49, 8.49, 8.49, 8.49, 8.49, 8.49, 8.05, 8.05, 7.15, 6.71, 6.26, 6.71, 7.15, 7.6, 8.05, 8.49, 8.94, 9.39, 9.39, 9.39, 9.83, 9.83, 9.83, 0.89, 0.89, 1.34, 1.34, 1.34, 1.79, 1.79, 1.79, 2.24, 2.24, 2.68, 2.68, 2.68, 3.13, 3.13, 3.13, 3.58, 3.58, 3.58, 4.02, 4.02, 4.02, 4.47, 4.47, 4.47, 4.92, 4.92, 4.92, 5.36, 5.36, 5.36, 5.36, 5.81, 5.81, 5.81, 5.81, 5.81, 5.81, 6.26, 6.26, 6.26, 6.26, 6.26, 6.26, 6.26, 6.71, 6.71, 6.71, 6.71, 6.71, 6.71, 6.71, 6.71, 6.71, 6.71, 6.71, 7.15, 7.15, 7.15, 7.15, 7.15, 7.15, 7.15, 7.15, 7.6, 7.6, 7.6, 7.6, 7.6, 8.05, 8.05, 8.05, 8.05, 8.05, 8.49, 8.49, 8.49, 8.49, 8.49, 8.49, 8.49, 8.49, 8.05, 7.6, 6.71, 6.26, 6.71, 7.15, 7.6, 7.6, 8.05, 8.49, 8.94, 8.94, 9.39, 9.39, 9.39, 9.39, 0.89, 0.89, 1.34, 1.34, 1.34, 1.79, 1.79, 1.79, 2.24, 2.24, 2.24, 2.68, 2.68, 3.13, 3.13, 3.13, 3.58, 3.58, 3.58, 4.02, 4.02, 4.02, 4.47, 4.47, 4.92, 4.92, 4.92, 5.36, 5.36, 5.36, 5.36, 5.36, 5.81, 5.81, 5.81, 5.81, 5.81, 5.81, 5.81, 6.26, 6.26, 6.26, 6.26, 6.26, 6.26, 6.26, 6.26, 6.26, 6.71, 6.71, 6.71, 6.71, 6.71, 6.71, 6.71, 6.71, 6.71, 6.71, 6.71, 7.15, 7.15, 7.15, 7.15, 7.15, 7.15, 7.6, 7.6, 7.6, 7.6, 7.6, 7.6, 8.05, 8.05, 8.05, 8.05, 8.05, 8.05, 8.05, 8.49, 8.49, 8.05, 8.05, 8.05, 7.6, 7.15, 6.26, 6.71, 7.15, 7.6, 7.6, 8.05, 8.49, 8.49, 8.94, 8.94, 8.94, 8.94, 8.94, 0.89, 0.89, 1.34, 1.34, 1.34, 1.79, 1.79, 1.79, 2.24, 2.24, 2.24, 2.68, 2.68, 3.13, 3.13, 3.13, 3.58, 3.58, 3.58, 4.02, 4.02, 4.02, 4.47, 4.47, 4.92, 4.92, 4.92, 5.36, 5.36, 5.36, 5.36, 5.36, 5.81, 5.81, 5.81, 5.81, 5.81, 5.81, 5.81, 6.26, 6.26, 6.26, 6.26, 6.26, 6.26, 6.26, 6.26, 6.26, 6.71, 6.71, 6.71, 6.71, 6.71, 6.71, 6.71, 6.71, 6.71, 6.71, 6.71, 7.15, 7.15, 7.15, 7.15, 7.15, 7.15, 7.6, 7.6, 7.6, 7.6, 7.6, 7.6, 8.05, 8.05, 8.05, 8.05, 8.05, 8.05, 8.05, 8.49, 8.49, 8.05, 8.05, 8.05, 7.6, 7.15, 6.71, 6.71, 6.71, 7.15, 7.6, 7.6, 8.05, 8.49, 8.49, 8.49, 8.49, 8.49, 8.49]}]